     2              OBSERVATION DATA    GPS                 RINEX VERSION / TYPE
srx v1.3 (5/19/93) STARR 93/10/11 17:37:18                  PGM / RUN BY / DATE
                                                            COMMENT
sig: 9 8 7 6 5 4 1 0                                        COMMENT
sig: 9 8 7 6 5 4 1 0                                        COMMENT
sig: 9 8 7 6 5 4 1 0                                        COMMENT
Original Marker Name: 3079                                  COMMENT
Campaign Name: Baja (Dixon) 1993                            COMMENT
4-Character Station Name: 3079                              COMMENT
6-Character Antenna Code: DMRCHT                            COMMENT
Vertical Measurement Point: BPA                             COMMENT
Vertical Offset to Rinex Ref. Point: 0.0000                 COMMENT
Radial Measurement Point: RRP                               COMMENT
Radial Offset to Rinex Ref. Point: 0.0000                   COMMENT
Antenna Height from Field Measurement: 0.0614 m             COMMENT
Additional Antenna Identification Info.:                    COMMENT
Turborogue and Ashtech Choke Ring                           COMMENT
Original XYZ: -2493309.0382 -4655182.3466 3565500.9443      COMMENT
New XYZ position is based on association with SCEC monument COMMENT
E1C2M2S3+0011. Position of that monument is believed to be  COMMENT
valid to within 1 m horizontally; vertical accuracy         COMMENT
should be no worse than 3-times this value.                 COMMENT
                                                            COMMENT
Revised Rinex header created by UCSD GPS archive for        COMMENT
GSAC on 09-Nov-2004 (2004:314) 21:58:14 GMT                 COMMENT
For assistance contact dagnew@ucsd.edu                      COMMENT
or anderson@python.ucsd.edu                                 COMMENT
                                                            COMMENT
3079S                                                       MARKER NAME
THE OBSERVER WAS?___JET PROPULSION LABORATORY               OBSERVER / AGENCY
132 TURBOROGUE SNR-8000 100.1                               REC # / TYPE / VERS
132 DORNE-MARGOL. TYPE T                                    ANT # / TYPE
 -2379901.0000 -4893030.0000  3318684.0000                  APPROX POSITION XYZ
        0.0614        0.0000        0.0000                  ANTENNA: DELTA H/E/N
     1     1     0                                          WAVELENGTH FACT L1/2
     4    L1    L2    P1    P2                              # / TYPES OF OBSERV
   120                                                      INTERVAL
  1993     4     8    13    46    0.000000                  TIME OF FIRST OBS
  1993     4     8    22    16    0.000000                  TIME OF LAST OBS
    18                                                      # OF SATELLITES
          01   131   131   131   131                        PRN / # OF OBS
          02   469   469   469   469                        PRN / # OF OBS
          11   482   482   482   482                        PRN / # OF OBS
          13   107   107   107   107                        PRN / # OF OBS
          14   571   571   571   571                        PRN / # OF OBS
          15   518   518   518   518                        PRN / # OF OBS
          16   288   288   288   288                        PRN / # OF OBS
          18   826   826   826   826                        PRN / # OF OBS
          19   844   844   844   844                        PRN / # OF OBS
          20    67    67    67    67                        PRN / # OF OBS
          21    75    75    75    75                        PRN / # OF OBS
          22   553   553   553   553                        PRN / # OF OBS
          25   329   329   329   329                        PRN / # OF OBS
          26   204   204   204   204                        PRN / # OF OBS
          27   669   669   669   669                        PRN / # OF OBS
          28   467   467   467   467                        PRN / # OF OBS
          29   766   766   766   766                        PRN / # OF OBS
                                                            END OF HEADER
 93 04 08 13 46 00.0000000  0  7 29 22 25 15 01 21 20
         0.02118        -0.13118  23407715.16318  23407715.52918
        -0.14018        -0.66618  24171022.44318  24171024.89218
        -0.13119        -0.04219  20387871.84819  20387871.70919
        -0.50118        -0.26718  20863243.24618  20863243.81618
        -0.06918        -0.14018  22925293.40418  22925294.81118
        -0.31818         0.02218  23829541.59218  23829544.87418
        -0.37518        -0.67818  24806889.33918  24806892.96718
 93 04 08 13 48 00.0000000  0  7 29 22 25 15 01 21 20
   -361064.94308   -281349.48308  23339006.70308  23339007.19308
   -475945.82208   -370867.52308  24080453.10508  24080455.72508
    -56104.79609    -43718.05609  20377195.55609  20377195.40509
    -79092.20908    -61630.29608  20848192.69908  20848193.33508
    142670.89008    111171.69608  22952442.97208  22952444.50408
    229894.36908    179138.11708  23873289.47508  23873292.97408
    -33278.14608    -25931.63508  24800557.01808  24800560.58108
 93 04 08 13 50 00.0000000  0  7 29 22 25 15 01 21 20
   -721119.87108   -561911.79908  23270490.67208  23270491.06608
   -953200.19908   -742754.08608  23989634.66408  23989637.06708
   -104610.12309    -81514.50709  20367965.36509  20367965.30109
   -149185.07808   -116248.24208  20834854.54708  20834855.21708
    284474.09208    221667.38108  22979427.50508  22979429.03708
    462139.94108    360108.04808  23917484.92208  23917488.43208
    -59337.13207    -46237.59708  24795598.16507  24795602.01308
 93 04 08 13 52 00.0000000  0  7 29 22 25 15 01 21 20
  -1078461.75208   -840359.99608  23202490.78208  23202491.18308
  -1430301.24508  -1114521.15708  23898845.21008  23898847.66208
   -144361.92009   -112490.03009  20360400.92109  20360400.82109
   -209049.64608   -162896.06008  20823462.71808  20823463.44708
    426930.77908    332672.28608  23006536.25408  23006538.01908
    698179.78508    544034.57008  23962402.22908  23962405.79908
    -76919.08508    -59938.03008  24792252.68808  24792256.40508
 93 04 08 13 54 00.0000000  0  8 29 14 22 25 15 01 21 20
  -1432459.18908  -1116202.10708  23135127.19008  23135127.60508
        -0.05318        -0.63418  22451695.42518  22451696.40618
  -1906152.73708  -1485314.57308  23808293.85508  23808296.23208
   -174350.68009   -135857.99609  20354694.31809  20354694.22509
   -257833.41208   -200909.47508  20814179.63108  20814180.33208
    570889.59308    444847.70008  23033931.04908  23033932.67808
    939150.45908    731803.30108  24008257.99808  24008261.66508
    -85140.09208    -66344.24508  24790688.52108  24790692.26408
 93 04 08 13 56 00.0000000  0  8 14 29 22 25 15 01 21 20
   -458461.81408   -357243.61308  22364453.04108  22364454.06408
  -1781723.81108  -1388356.33608  23068664.33608  23068664.83808
  -2379250.53208  -1853962.22708  23718266.23508  23718268.79908
   -193242.31209   -150578.81908  20351099.43209  20351099.36008
   -294285.40408   -229313.71508  20807243.04608  20807243.88008
    717579.70108    559151.39008  23061845.44008  23061847.27808
   1185990.70708    924145.76608  24055230.55408  24055234.39808
    -82715.19908    -64454.93108  24791150.10308  24791153.96108
 93 04 08 13 58 00.0000000  0  8 14 29 22 25 15 01 21 20
   -912888.47908   -711342.35208  22277978.62808  22277979.62708
  -2126599.11208  -1657090.35008  23003036.86708  23003037.28108
  -2849524.86008  -2220409.76608  23628776.10008  23628778.56008
   -201431.03709   -156959.71208  20349541.22809  20349541.17008
   -318596.65808   -248257.64808  20802616.87008  20802617.68708
    866834.51408    675453.53808  23090247.93908  23090249.88708
   1438242.01508   1120704.63508  24103232.82708  24103236.80108
    -69802.96708    -54393.59808  24793607.30608  24793611.03708
 93 04 08 14 00 00.0000000  0  8 29 14 22 25 15 01 21 20
  -2467246.02608  -1922529.49008  22938213.82908  22938214.25508
  -1363447.67008  -1062427.45708  22192240.10308  22192241.16408
  -3316969.67908  -2584652.42408  23539824.26808  23539826.86408
   -199131.79009   -155168.17008  20349978.83209  20349978.84608
   -331030.28708   -257946.27408  20800250.95208  20800251.79508
   1018549.42408    793672.67308  23119118.53808  23119120.29108
   1695885.25608   1321464.99208  24152261.14908  24152265.23008
    -46632.27508    -36338.65408  24798016.59108  24798020.55808
 93 04 08 14 02 00.0000000  0  8 14 29 22 25 15 01 21 20
  -1811120.18208  -1411263.21108  22107050.92408  22107051.90308
  -2804924.92408  -2185655.87308  22873955.68608  22873956.11908
  -3782529.90308  -2947426.52108  23451230.93008  23451233.47308
   -188003.05709   -146496.51108  20352096.64909  20352096.63608
   -332809.70108   -259332.92908  20799912.37508  20799913.24208
   1171430.95408    912800.83608  23148211.11208  23148213.11608
   1957947.34208   1525668.59708  24202130.36808  24202134.70908
    -14390.47208    -11215.34208  24804152.23308  24804156.13108
 93 04 08 14 04 00.0000000  0  8 14 29 22 25 15 01 21 20
  -2255955.36808  -1757888.06908  22022401.54908  22022402.60608
  -3139613.98508  -2446452.55608  22810266.42608  22810266.83708
  -4246031.58408  -3308596.56108  23363029.39308  23363031.86508
   -167608.52909   -130604.75308  20355977.63909  20355977.62508
   -324044.39308   -252502.92908  20801580.48108  20801581.35608
   1325517.92708   1032868.27708  23177533.11908  23177535.27608
   2224185.33408   1733126.13008  24252794.32208  24252798.77508
     26850.97208     20920.68208  24812000.40008  24812004.35908
 93 04 08 14 06 00.0000000  0  8 14 29 22 25 15 01 21 20
  -2697486.06708  -2101938.00908  21938381.14708  21938382.16708
  -3471124.51708  -2704772.44608  22747182.10708  22747182.51208
  -4707066.56008  -3667844.51808  23275297.29708  23275299.81108
   -138065.21009   -107584.08608  20361599.62409  20361599.65108
   -304622.85208   -237369.38008  20805276.38408  20805277.26008
   1481190.00308   1154170.85808  23207156.96008  23207159.00508
   2494618.24008   1943852.38508  24304256.46808  24304261.17208
     77244.27608     60188.07408  24821589.92008  24821594.00208
 93 04 08 14 08 00.0000000  0  8 14 29 22 01 25 15 21 20
  -3135297.90608  -2443090.14208  21855068.38208  21855069.38108
  -3799356.73408  -2960537.83408  22684721.63008  22684721.94308
  -5165482.07308  -4025051.32308  23188063.73208  23188066.22908
   1638023.01608   1276378.04208  23237001.53308  23237003.81908
    -99602.99409    -77613.63408  20368918.84809  20368918.88808
   -274693.00908   -214047.55308  20810971.91208  20810972.85108
   2769171.78508   2157789.51308  24356502.72808  24356507.69508
    136679.15108    106500.85808  24832900.05908  24832904.10608
 93 04 08 14 10 00.0000000  0  8 14 29 22 01 25 15 21 20
  -3569932.55808  -2781766.53708  21772360.22008  21772361.26808
  -4124643.26408  -3214007.87908  22622821.57608  22622822.06208
  -5621122.12308  -4380095.40908  23101358.37008  23101360.64408
   1796258.76208   1399678.25008  23267113.02408  23267115.27608
    -52291.50709    -40747.65008  20377921.98209  20377922.03708
   -234406.36008   -182655.48508  20818638.32808  20818639.29608
   3047854.59008   2374944.21808  24409534.96608  24409539.86508
    205045.64908    159773.36607  24845910.03608  24845913.93507
 93 04 08 14 12 00.0000000  0  8 14 29 22 01 25 15 21 20
  -4000936.70508  -3117613.97208  21690342.83608  21690343.92508
  -4446888.89908  -3465108.38908  22561500.38008  22561500.84708
  -6073790.58008  -4732823.96108  23015218.18908  23015220.55508
   1955705.25008   1523921.86308  23297454.98008  23297457.38708
      3898.86109      3036.94108  20388614.74409  20388614.89308
   -183885.66008   -143288.83008  20828252.19008  20828253.18808
   3330371.69108   2595086.67408  24463296.78508  24463301.90908
    282263.75408    219943.27407  24860604.20808  24860608.13007
 93 04 08 14 14 00.0000000  0  8 14 29 22 01 21 25 15 20
  -4428253.61508  -3450588.24508  21609027.17208  21609028.24008
  -4766004.34508  -3713769.78708  22500774.78708  22500775.12308
  -6523262.50308  -5083061.72808  22929686.55408  22929688.80208
   2116287.44208   1649050.43508  23328013.05508  23328015.63208
   3616769.93108   2818253.37507  24517797.09108  24517802.11107
     68505.82309     53379.92108  20400909.08009  20400909.26508
   -123226.75008    -96022.26508  20839795.29708  20839796.35808
    368279.75108    286968.65507  24876972.36908  24876976.48107
 93 04 08 14 16 00.0000000  0  8 14 29 22 01 21 20 25 15
  -4851666.78108  -3780520.61308  21528454.38108  21528455.56008
  -5082281.77108  -3960219.75908  22440589.14308  22440589.61608
  -6969323.89808  -5430641.96508  22844803.92508  22844806.06008
   2278075.61308   1775118.73408  23358800.64608  23358803.28008
   3907051.71207   3044446.25707  24573036.26407  24573041.86107
    463020.94208    360792.92007  24895001.16508  24895005.07907
    141588.91409    110327.67608  20414816.42909  20414816.60908
    -52545.61508    -40946.19508  20853245.58308  20853246.60408
 93 04 08 14 18 00.0000000  0  8 14 29 22 01 21 20 25 15
  -5271082.42208  -4107338.03308  21448642.22408  21448643.38108
  -5395335.15508  -4204157.50808  22381017.15208  22381017.45808
  -7411776.85108  -5775410.43408  22760607.71408  22760610.09608
   2441019.25108   1902087.37908  23389807.87408  23389810.63608
   4201198.43407   3273650.79707  24629011.08907  24629016.87607
    566395.49308    441344.54707  24914672.70908  24914676.51907
    223213.94309    173931.48208  20430349.26609  20430349.46408
     28018.40208     21830.82408  20868576.55808  20868577.55108
 93 04 08 14 20 00.0000000  0  8 14 29 22 01 21 20 25 15
  -5686422.90608  -4430979.99708  21369605.56808  21369606.70508
  -5705303.34308  -4445691.19108  22322032.22808  22322032.61508
  -7850364.55108  -6117167.00608  22677147.27908  22677149.54208
   2605220.67208   2030036.09808  23421054.91108  23421057.62108
   4499076.62907   3505762.89007  24685696.02407  24685702.01807
    678363.30708    528592.19107  24935979.26808  24935983.50407
    313277.65409    244110.87108  20447487.90309  20447488.21008
    118380.79608     92242.94108  20885771.98208  20885773.11708
 93 04 08 14 22 00.0000000  0  8 14 29 22 01 21 20 25 15
  -6097125.14108  -4751007.73608  21291451.58208  21291452.70708
  -6012449.05008  -4685025.54008  22263584.39108  22263584.65308
  -8284833.90408  -6455714.43708  22594470.39108  22594472.60808
   2771088.79408   2159283.55408  23452618.91108  23452621.78708
   4800385.17707   3740547.92207  24743033.88307  24743039.95107
    798876.21207    622498.27807  24958912.27307  24958916.34507
    411445.70709    320605.31908  20466168.76009  20466169.06508
    218446.88208    170216.36608  20904814.04908  20904815.21708
 93 04 08 14 24 00.0000000  0  8 14 29 22 01 21 20 25 15
  -6503160.04208  -5067398.58908  21214185.76608  21214186.89408
  -6316634.98208  -4922053.57808  22205699.73208  22205700.20608
  -8715012.28108  -6790918.21608  22512610.13008  22512612.28108
   2938172.62408   2289478.30308  23484414.28008  23484417.21208
   5105505.24307   3978302.92507  24801096.82107  24801103.28007
    927801.55907    722959.49307  24983446.06507  24983450.12807
    517604.82209    403326.57308  20486370.33909  20486370.68808
    328038.39808    255612.19708  20925668.72508  20925669.89008
 93 04 08 14 26 00.0000000  0  8 14 29 22 01 21 20 25 15
  -6904677.07608  -5380269.03208  21137779.65508  21137780.81008
  -6617785.80508  -5156716.56908  22148392.59108  22148393.03108
  -9140662.09608  -7122593.27808  22431611.52208  22431613.69508
   3106508.52108   2420648.70208  23516447.83508  23516450.97608
   5414262.26107   4218891.90707  24859852.02107  24859858.59207
   1065067.20807    829919.70107  25009566.92307  25009570.97807
    631751.60509    492271.98108  20508091.82309  20508092.22708
    447032.44308    348334.67108  20948312.66808  20948313.91608
 93 04 08 14 28 00.0000000  0  7 29 14 22 15 01 21 25
  -6915938.70608  -5389043.52508  22091656.05308  22091656.46808
  -7301279.93408  -5689310.25508  21062308.64108  21062309.84208
  -9561638.14108  -7450626.48608  22351502.37008  22351504.60208
    575213.71008    448216.00708  20972704.90608  20972706.15408
   3276253.97308   2552917.39708  23548749.67008  23548753.01708
   5726088.85907   4461872.81207  24919191.33907  24919198.08707
    753590.14909    587210.96208  20531277.08909  20531277.44408
 93 04 08 14 30 00.0000000  0  7 15 29 22 01 21 14 25
    712416.82808    555127.34708  20998813.94308  20998815.20908
  -7211234.74808  -5619144.35508  22035463.10508  22035463.49008
  -9977738.26908  -7774860.30208  22272321.14408  22272323.33308
   3447108.74408   2686050.46208  23581262.63408  23581265.94808
   6040989.03907   4707248.74207  24979115.58007  24979122.41607
  -7693065.85308  -5994598.01008  20987754.31008  20987755.43408
    883168.42109    688180.89808  20555935.10409  20555935.50708
 93 04 08 14 32 00.0000000  0  7 15 29 22 01 21 14 25
    858416.57108    668893.18708  21026596.94108  21026598.29008
  -7503872.20508  -5847173.56808  21979776.06908  21979776.48108
 -10388817.59108  -8095181.80308  22194095.33608  22194097.47408
   3619184.49808   2820134.94608  23614008.00108  23614011.53608
   6359115.33607   4955138.56707  25039653.77707  25039660.51507
  -8079902.67408  -6296029.33808  20914141.70108  20914142.87508
   1020229.98608    794981.96008  20582017.18508  20582017.59708
 93 04 08 14 34 00.0000000  0  6 15 29 22 01 14 25
   1013012.93908    789357.68208  21056015.78208  21056017.17508
  -7793738.14108  -6073043.16108  21924616.45808  21924616.92708
 -10794702.22308  -8411455.49208  22116857.95608  22116860.13708
   3792696.43608   2955338.54008  23647026.66508  23647030.11408
  -8461751.06308  -6593573.57808  20841478.41108  20841479.63508
   1164110.89708    907096.78108  20609396.90208  20609397.42008
 93 04 08 14 36 00.0000000  0  6 15 29 22 01 14 25
   1176012.90808    916370.42808  21087033.77408  21087035.29008
  -8080660.06108  -6296618.73508  21870017.01008  21870017.57608
 -11195207.38108  -8723537.35808  22040644.29208  22040646.44908
   3967185.82108   3091303.77208  23680231.28208  23680234.94208
  -8838380.79008  -6887051.33408  20769808.22008  20769809.36408
   1315172.76808   1024807.14608  20638143.26108  20638143.76308
 93 04 08 14 38 00.0000000  0  6 29 22 15 01 14 25
  -8365003.58408  -6518185.17508  21815908.34608  21815908.90508
 -11590148.12108  -9031283.29708  21965489.60508  21965491.72908
   1347220.82208   1049778.97408  21119613.80008  21119615.28608
   4142856.29108   3228189.30708  23713660.57208  23713664.58208
  -9209078.77408  -7175906.95108  20699266.75608  20699267.98208
   1473487.83308   1148169.34408  20668269.68008  20668270.29708
 93 04 08 14 40 00.0000000  0  6 29 22 15 01 14 25
  -8647000.42908  -6737923.03008  21762246.18408  21762246.77408
 -11979294.67408  -9334514.31308  21891437.42508  21891439.47708
   1526487.03008   1189466.71208  21153727.23208  21153728.74508
   4319756.26408   3366032.87408  23747323.86408  23747328.12208
  -9574390.35208  -7460565.35508  20629750.38108  20629751.57508
   1638381.07708   1276657.38808  20699648.02208  20699648.68808
 93 04 08 14 42 00.0000000  0  6 29 22 15 01 14 25
  -8926238.33708  -6955511.05808  21709109.00608  21709109.60208
 -12362519.89808  -9633131.35008  21818512.02208  21818514.02308
   1713553.26008   1335232.37908  21189324.91608  21189326.49608
   4497940.33408   3504876.97008  23781231.63908  23781235.99608
  -9934240.91508  -7740968.43908  20561273.11008  20561274.35008
   1809803.41408   1410233.03208  20732268.80108  20732269.49908
 93 04 08 14 44 00.0000000  0  6 29 22 15 01 14 25
  -9202714.41108  -7170947.00808  21656497.41608  21656497.90808
 -12739622.36708  -9926977.46308  21746751.88108  21746753.93108
   1908233.71408   1486931.19408  21226371.51608  21226373.19908
   4677244.57508   3644593.92308  23815352.77008  23815357.15808
 -10288104.37308  -8016706.24208  20493935.19008  20493936.41608
   1987605.73308   1548780.09208  20766103.59308  20766104.31508
 93 04 08 14 46 00.0000000  0  7 29 22 15 01 18 14 25
  -9476653.61108  -7384406.19308  21604368.61608  21604369.19008
 -13110434.69708 -10215922.18608  21676188.67908  21676190.73108
   2110309.42108   1644392.55008  21264825.47508  21264827.17708
   4857413.06708   3784984.31308  23849638.08008  23849642.71108
        -0.41416        -0.12416  24418261.83916  24418264.07716
 -10636092.35708  -8287865.75108  20427715.28608  20427716.53608
   2171723.03208   1692247.93408  20801140.08408  20801140.90508
 93 04 08 14 48 00.0000000  0  7 29 22 15 01 18 14 25
  -9747675.25308  -7595591.95408  21552794.96108  21552795.49108
 -13474627.23108 -10499708.60008  21606885.18908  21606887.25308
   2319723.02308   1807571.74108  21304675.71908  21304677.52708
   5039040.15308   3926511.29508  23884201.17008  23884205.66408
   -385938.08307   -300730.97806  24344820.33407  24344823.04506
 -10977830.08108  -8554154.92908  20362684.83708  20362686.08708
   2362023.71008   1840533.97908  20837353.26708  20837354.10008
 93 04 08 14 50 00.0000000  0  7 29 22 15 01 18 14 25
 -10016193.62008  -7804827.10408  21501697.64108  21501698.29308
 -13831924.65408 -10778122.15608  21538893.76108  21538895.77708
   2536360.35708   1976379.80108  21345900.61708  21345902.40108
   5222137.91208   4069184.24008  23919043.96208  23919048.78708
   -770123.76507   -600096.52107  24271712.51507  24271714.99007
 -11312815.39908  -8815182.49908  20298939.24008  20298940.51808
   2558629.59408   1993733.16208  20874766.27708  20874767.11008
 93 04 08 14 52 00.0000000  0  7 29 22 15 01 18 14 25
 -10282113.10708  -8012037.16108  21451094.90608  21451095.56308
 -14182124.64408 -11051005.20508  21472252.84608  21472254.88208
   2760036.66508   2150672.77208  21388464.98008  21388466.93608
   5406693.23208   4212992.97208  23954164.17708  23954169.04508
  -1152434.15707   -898000.83607  24198961.45307  24198963.98007
 -11641262.67809  -9071115.47508  20236437.93109  20236439.12608
   2761327.20708   2151679.14408  20913338.50108  20913339.44708
 93 04 08 14 54 00.0000000  0  7 29 22 15 01 18 14 25
 -10545223.45408  -8217058.28308  21401026.70308  21401027.42908
 -14525079.26208 -11318242.49008  21406990.72308  21406992.81708
   2990511.35408   2330263.16708  21432323.16308  21432325.11808
   5592879.29808   4358072.43107  23989594.75108  23989599.61707
  -1533189.66707  -1194693.49807  24126506.10607  24126508.50907
 -11962985.54409  -9321808.67008  20175216.11309  20175217.42408
   2969606.90308   2313974.78708  20952973.09708  20952973.99808
 93 04 08 14 56 00.0000000  0  7 29 22 25 15 01 18 14
 -10805594.03708  -8419944.52208  21351479.88908  21351480.61908
 -14860581.29408 -11579672.57008  21343146.76808  21343148.84008
   3183786.05808   2480867.42408  20993730.13008  20993731.08208
   3227605.23908   2515011.36508  21477440.82908  21477442.82208
   5780260.12507   4504082.84307  24025252.56207  24025257.76807
  -1912334.99407  -1490131.47507  24054357.06807  24054359.81307
 -12277720.20409  -9567056.50108  20115324.12309  20115325.37608
 93 04 08 14 58 00.0000000  0  7 29 22 25 15 01 18 14
 -11063368.67608  -8620807.94808  21302427.05908  21302427.72308
 -15188483.23308 -11835180.51008  21280749.07908  21280751.06808
   3403158.55308   2651806.80508  21035475.51708  21035476.57408
   3471079.59408   2704731.33408  21523772.69508  21523774.84608
   5968854.45407   4651038.86907  24061141.28207  24061146.64307
  -2289983.33208  -1784403.00108  23982493.14108  23982495.76708
 -12585382.29909  -9806793.24708  20056778.02709  20056779.35908
 93 04 08 15 00 00.0000000  0  7 29 22 25 15 01 18 14
 -11318266.48608  -8819429.67808  21253921.66208  21253922.47308
 -15508591.64308 -12084615.58408  21219834.37508  21219836.45608
   3627981.64408   2826993.39308  21078258.10508  21078259.22008
   3720745.69608   2899276.04208  21571282.73008  21571284.95708
   6158980.61507   4799188.49307  24097321.62707  24097327.16707
  -2666013.21108  -2077413.41808  23910937.01008  23910939.77708
 -12886009.14309 -10041047.97008  19999570.64409  19999571.97308
 93 04 08 15 02 00.0000000  0  7 29 22 25 15 01 14 18
 -11570808.92808  -9016216.07308  21205864.53708  21205865.30008
 -15820764.92108 -12327867.45808  21160429.75808  21160431.86608
   3858410.71208   3006548.26608  21122107.43308  21122108.71408
   3976360.60808   3098456.16108  21619924.90908  21619927.22008
   6350587.74407   4948492.08307  24133783.78707  24133789.21607
 -13179319.67609 -10269601.67508  19943755.51509  19943756.84108
  -3040396.03008  -2369140.40008  23839694.54108  23839697.28708
 93 04 08 15 04 00.0000000  0  7 29 22 25 15 01 14 18
 -11821044.93208  -9211205.22908  21158246.26208  21158246.99608
 -16124827.64808 -12564799.39908  21102568.49308  21102570.50208
   4093763.31608   3189939.63208  21166893.75808  21166895.03908
   4237720.83608   3302113.14808  21669660.43708  21669662.76508
   6543534.06507   5098839.21807  24170500.60207  24170506.51407
 -13465084.62209 -10492275.69508  19889376.33109  19889377.67808
  -3413017.34708  -2659494.76108  23768787.10208  23768789.84908
 93 04 08 15 06 00.0000000  0  7 29 22 25 15 01 14 18
 -12068039.01708  -9403668.19108  21111244.84508  21111245.62108
 -16420575.98808 -12795252.58308  21046289.48008  21046291.44908
   4333979.61208   3377120.89408  21212605.62108  21212606.93008
   4504653.28908   3510112.11008  21720456.15408  21720458.71208
   6738304.88007   5250608.02407  24207564.82107  24207571.01807
 -13743222.92909 -10709006.88208  19836448.41309  19836449.72308
  -3784548.73808  -2948999.78608  23698087.22908  23698089.80108
 93 04 08 15 08 00.0000000  0  7 29 25 15 01 18 14 22
 -12312234.17408  -9593950.16508  21064776.09008  21064776.83308
   4579149.63708   3568162.19508  21259260.10208  21259261.47408
   4776943.76108   3722286.15008  21772271.60208  21772274.21008
   6934375.34807   5403389.53107  24244876.48907  24244882.32907
  -4154296.48608  -3237114.97108  23627726.45108  23627729.10908
 -14013447.80009 -10919571.74508  19785026.35309  19785027.70408
 -16707850.72908 -13019102.95308  20991622.82508  20991624.83208
 93 04 08 15 10 00.0000000  0  7 29 25 15 01 18 14 22
 -12554005.47008  -9782343.42108  21018768.57708  21018769.29408
   4828594.76008   3762534.76908  21306728.14408  21306729.62808
   5054370.25308   3938462.26908  21825064.43608  21825067.13008
   7132224.21506   5557556.74106  24282526.37606  24282532.45206
  -4522134.56508  -3523742.08008  23557729.26508  23557732.10508
 -14275574.73009 -11123826.52608  19735145.29909  19735146.63508
 -16986502.18708 -13236233.89408  20938597.19708  20938599.21608
 93 04 08 15 12 00.0000000  0  6 25 15 18 14 29 22
   5082583.61708   3960447.91608  21355060.81808  21355062.38708
   5336762.24508   4158507.58508  21878802.13508  21878804.86308
  -4888586.01908  -3809288.69908  23487995.95308  23487998.61108
 -14529461.63109 -11321660.50608  19686832.25209  19686833.60408
 -12793169.30708  -9968704.88408  20973257.26908  20973258.06508
 -17256335.90108 -13446493.88308  20887249.53408  20887251.46308
 93 04 08 15 14 00.0000000  0  6 25 15 18 14 29 22
   5341490.78208   4162193.49808  21404329.25608  21404331.02908
   5623980.34108   4382313.48808  21933458.15308  21933461.06308
  -5253447.78908  -4093596.52108  23418564.95208  23418567.67808
 -14775309.02009 -11513229.92408  19640049.04309  19640050.43608
 -13029497.10008 -10152856.43908  20928285.59708  20928286.34508
 -17517127.53108 -13649708.07808  20837622.51208  20837624.42208
 93 04 08 15 16 00.0000000  0  6 25 15 18 14 29 22
   5604469.21808   4367111.50108  21454372.74108  21454374.34808
   5915794.39708   4609700.65508  21988988.83108  21988991.81508
  -5616498.09807  -4376492.76908  23349478.63207  23349481.45308
 -15012764.38909 -11698260.11208  19594862.84609  19594864.21008
 -13263041.98108 -10334839.48408  20883843.51608  20883844.28108
 -17768750.55608 -13845777.88708  20789740.21008  20789742.09908
 93 04 08 15 18 00.0000000  0  6 25 15 18 14 29 22
   5871369.29808   4575085.33108  21505162.29908  21505163.99808
   6211966.15108   4840483.40708  22045348.77808  22045351.93308
  -5978033.72408  -4658208.76808  23280680.88908  23280683.48608
 -15241172.11609 -11876240.18108  19551398.32709  19551399.71808
 -13493937.09208 -10514757.77908  20839905.63008  20839906.45308
 -18011088.17108 -14034612.28708  20743624.77508  20743626.67108
 93 04 08 15 20 00.0000000  0  6 25 15 18 14 29 22
   6142390.78808   4786270.62608  21556736.22708  21556738.09008
   6512240.73508   5074463.15508  22102489.57608  22102492.68208
  -6337998.45408  -4938700.71608  23212181.79308  23212184.34308
 -15461319.61609 -12047783.71908  19509505.68909  19509507.05808
 -13721887.55508 -10692381.54008  20796528.17908  20796529.00108
 -18244049.32408 -14216140.36308  20699293.70908  20699295.63808
 93 04 08 15 22 00.0000000  0  6 25 15 18 14 29 22
   6417249.32308   5000445.81708  21609040.29608  21609042.21308
   6816434.82008   5311497.04908  22160376.07108  22160379.38108
  -6696394.95808  -5217970.65508  23143981.14008  23143983.70108
 -15672686.67909 -12212485.36908  19469283.87909  19469285.28508
 -13947165.21008 -10867922.59008  20753659.30208  20753660.13108
 -18467477.03708 -14390239.81608  20656776.77808  20656778.65308
 93 04 08 15 24 00.0000000  0  6 25 15 18 14 29 22
   6695767.38908   5217472.53308  21662040.89808  21662042.76108
   7124367.76408   5551444.32208  22218974.21708  22218977.51408
  -7053196.49108  -5495997.84508  23076084.20308  23076086.54808
 -15874971.97209 -12370110.33308  19430790.34509  19430791.75708
 -14169934.93108 -11041509.41508  20711267.57908  20711268.44408
 -18681211.84808 -14556786.40908  20616104.36908  20616106.18808
 93 04 08 15 26 00.0000000  0  6 25 15 18 14 29 22
   6978055.13608   5437436.67408  21715758.61908  21715760.60308
   7435807.49208   5794124.13008  22278239.57808  22278243.02208
  -7408365.85208  -5772753.20908  23008497.51908  23008500.13808
 -16068431.14809 -12520857.82008  19393976.35509  19393977.74308
 -14389844.35208 -11212867.45508  20669420.31608  20669421.14508
 -18885158.41608 -14715705.82708  20577294.65608  20577296.51808
 93 04 08 15 28 00.0000000  0  6 25 15 18 14 29 22
   7263728.17308   5660038.66708  21770120.64508  21770122.90508
   7750614.07608   6039427.42308  22338145.68408  22338149.30908
  -7761977.86008  -6048295.09508  22941207.38508  22941210.25008
 -16252299.95009 -12664132.28808  19358987.34709  19358988.77008
 -14606778.22708 -11381906.89908  20628139.13908  20628140.00008
 -19079131.51308 -14866853.72108  20540382.80808  20540384.67408
 93 04 08 15 30 00.0000000  0  7 25 15 19 18 14 29 22
   7552627.58208   5885154.70908  21825096.66908  21825098.92108
   8068588.24208   6287198.92908  22398654.60708  22398658.29208
        -0.92117        -0.39116  24025259.53617  24025264.31016
  -8113641.87308  -6322318.98108  22874287.94608  22874290.78608
 -16426841.51109 -12800138.76708  19325773.25509  19325774.69008
 -14820517.48908 -11548457.03508  20587466.00808  20587466.87208
 -19263013.28808 -15010138.23708  20505391.32408  20505393.15208
 93 04 08 15 32 00.0000000  0  7 25 15 19 18 14 29 22
   7845065.50708   6113027.99608  21880746.02208  21880748.50308
   8389590.07608   6537329.64808  22459739.73808  22459743.57408
   -437149.61607   -340635.68407  23942072.47607  23942077.41507
  -8463826.85508  -6595190.45508  22807649.84508  22807652.85208
 -16592043.38709 -12928867.59408  19294336.48209  19294337.96408
 -15031618.98008 -11712951.77708  20547294.85308  20547295.68208
 -19436634.69208 -15145427.65308  20472352.28308  20472354.13408
 93 04 08 15 34 00.0000000  0  7 25 15 19 14 18 29 22
   8140757.84508   6343437.15408  21937014.80708  21937017.31508
   8713412.36308   6789658.06608  22521361.46008  22521365.49808
   -870397.92207   -678231.70207  23859628.23807  23859633.28507
 -16747363.43109 -13049896.28708  19264780.13509  19264781.61508
  -8812187.75008  -6866640.52508  22741359.12408  22741361.91608
 -15239718.07408 -11875106.98308  20507694.95308  20507695.79308
 -19599900.76408 -15272647.98608  20441283.73008  20441285.66608
 93 04 08 15 36 00.0000000  0  7 25 15 19 14 18 29 22
   8439496.19408   6576219.81608  21993863.30008  21993865.82508
   9039872.40908   7044041.83308  22583485.24308  22583489.32708
  -1299431.51607  -1012543.65907  23777985.99007  23777991.04207
 -16892882.77909 -13163288.07408  19237088.81709  19237090.31408
  -9158610.94308  -7136580.71608  22675437.18208  22675439.86908
 -15444316.74808 -12034534.59508  20468761.15108  20468762.07808
 -19752697.33908 -15391710.27108  20412207.57108  20412209.47108
 93 04 08 15 38 00.0000000  0  7 25 15 19 14 18 29 22
   8741073.65508   6811214.74008  22051251.93608  22051254.52108
   9368794.54708   7300344.08908  22646077.67908  22646082.03508
  -1724645.56007  -1343879.35907  23697070.27807  23697075.35507
 -17028545.32909 -13268999.25809  19211273.17709  19211274.70909
  -9503187.88408  -7405082.31608  22609866.42508  22609869.06508
 -15646064.39708 -12191740.62908  20430369.92508  20430370.88008
 -19894912.01808 -15502526.94108  20385145.06108  20385146.97208
 93 04 08 15 40 00.0000000  0  7 25 15 19 14 18 29 22
   9045356.84208   7048318.00508  22109155.52508  22109158.23708
   9699860.33308   7558316.68008  22709077.88308  22709082.47908
  -2146036.14607  -1672235.73807  23616882.56207  23616887.65007
 -17154409.44809 -13367075.30709  19187322.05409  19187323.62809
  -9846117.84408  -7672300.55408  22544608.93908  22544611.72908
 -15845031.40308 -12346779.95908  20392507.82108  20392508.77308
 -20026585.04008 -15605129.33908  20360088.51908  20360090.47908
 93 04 08 15 42 00.0000000  0  7 25 15 14 19 18 29 22
   9351681.16908   7287011.75408  22167447.44608  22167450.30908
  10032195.97208   7817278.73608  22772319.86108  22772324.61808
 -17270839.21709 -13457799.92109  19165166.35309  19165167.95509
  -2563889.50707  -1997835.93907  23537367.68807  23537372.76907
 -10188124.66908  -7938799.44308  22479527.38808  22479530.02508
 -16041416.28908 -12499807.23508  20355137.13608  20355138.05208
 -20148318.05108 -15699986.30208  20336923.55708  20336925.57108
 93 04 08 15 44 00.0000000  0  7 25 15 14 19 18 29 22
   9660407.96908   7527577.56808  22226196.68808  22226199.64908
  10366001.91508   8077386.49908  22835841.58108  22835846.59008
 -17377578.85209 -13540973.78009  19144854.55409  19144856.18909
  -2977839.93808  -2320394.88307  23458595.82208  23458600.91307
 -10528817.56808  -8204274.45408  22414695.77108  22414698.37608
 -16234897.54008 -12650571.93308  20318318.92308  20318319.92208
 -20259647.22708 -15786736.37208  20315738.39408  20315740.33308
 93 04 08 15 46 00.0000000  0  7 25 15 14 19 18 29 22
   9971321.86108   7769847.58808  22285362.01608  22285365.13108
  10701446.71608   8338771.22808  22899675.26308  22899680.50408
 -17474186.39409 -13616252.51109  19126470.86509  19126472.55809
  -3387568.62708  -2639664.21507  23380627.12708  23380632.40307
 -10867326.65108  -8468047.84708  22350279.59908  22350282.45408
 -16425225.84308 -12798879.79008  20282100.73208  20282101.72108
 -20360148.00808 -15865048.74408  20296613.83108  20296615.74608
 93 04 08 15 48 00.0000000  0  7 25 15 19 14 18 29 22
  10284976.62208   8014253.34908  22345048.98808  22345052.19508
  11038488.51208   8601400.34308  22963812.76208  22963818.27308
  -3792855.32608  -2955472.21507  23303503.80408  23303509.01907
 -17560113.09909 -13683208.50109  19110119.59109  19110121.32009
 -11203727.76208  -8730178.62508  22286264.65008  22286267.41108
 -16612221.97008 -12944591.15108  20246516.66608  20246517.64208
 -20449617.69208 -15934765.46008  20279588.37108  20279590.29408
 93 04 08 15 50 00.0000000  0  7 25 15 19 14 18 29 22
  10601091.41608   8260576.03208  22405203.91008  22405207.35108
  11376909.85808   8865104.41008  23028212.74508  23028218.64808
  -4193443.73108  -3267619.12607  23227274.53808  23227279.64807
 -17635654.72609 -13742072.23009  19095744.60909  19095746.35709
 -11538213.60308  -8990816.97608  22222614.12308  22222616.98708
 -16795652.89308 -13087524.44208  20211610.95508  20211612.01008
 -20528035.11408 -15995870.02508  20264666.10908  20264668.02108
 93 04 08 15 52 00.0000000  0  7 25 15 19 14 18 29 22
  10919233.83008   8508478.66508  22465744.82108  22465748.37608
  11716552.55308   9129760.12008  23092845.49508  23092851.32208
  -4589622.27308  -3576329.66807  23151884.20808  23151889.40407
 -17700707.66709 -13792762.96709  19083365.61009  19083367.37009
 -11870684.16508  -9249884.97608  22159346.99308  22159349.95508
 -16975640.19108 -13227774.39208  20177360.62408  20177361.67408
 -20595330.22708 -16048307.85408  20251860.34308  20251862.27808
 93 04 08 15 54 00.0000000  0  7 25 15 19 14 18 29 22
  11239860.08208   8758316.75208  22526758.49008  22526762.06508
  12057257.90108   9395243.81008  23157680.34008  23157686.53408
  -4980932.47208  -3881246.65808  23077420.32208  23077425.61608
 -17755111.40709 -13835155.63609  19073013.01709  19073014.82609
 -12201074.72208  -9507332.20908  22096475.94808  22096478.73408
 -17152007.99908 -13365203.95808  20143798.97808  20143800.10708
 -20651441.96708 -16092031.37608  20241182.67108  20241184.65108
 93 04 08 15 56 00.0000000  0  7 25 15 19 18 14 29 22
  11562563.60708   9009773.49608  22588167.34108  22588170.94108
  12398517.53208   9661159.36007  23222620.79308  23222627.05707
  -5367879.47808  -4182763.69608  23003786.72708  23003791.92308
 -12529625.07308  -9763345.53308  22033954.99608  22033957.83408
 -17798970.07709 -13869331.37608  19064667.05409  19064668.91808
 -17325140.38008 -13500112.41008  20110853.11708  20110854.19908
 -20696668.73408 -16127273.12208  20232576.39808  20232578.42308
 93 04 08 15 58 00.0000000  0  7 18 25 15 19 14 29 22
 -12856480.42408 -10018038.06908  21971756.47508  21971759.44708
  11886833.57608   9262450.81808  22649874.22208  22649878.15708
  12740178.67107   9927387.77407  23287637.49707  23287643.95707
  -5750227.38408  -4480697.00808  22931028.27508  22931033.19408
 -17831977.90109 -13895051.90408  19058386.00809  19058387.89608
 -17494882.24408 -13632378.89108  20078552.39008  20078553.51708
 -20730961.93408 -16153995.21708  20226050.74708  20226052.74808
 93 04 08 16 00 00.0000000  0  6 18 25 19 14 29 22
 -13181013.81808 -10270921.29808  21909999.89708  21910002.68508
  12212683.86208   9516359.55208  22711881.99708  22711885.95808
  -6128186.45708  -4775210.39508  22859104.95808  22859110.02008
 -17854512.60209 -13912611.56608  19054097.94009  19054099.84508
 -17661030.78008 -13761845.38008  20046935.46608  20046936.65408
 -20754147.77708 -16172062.24608  20221638.69608  20221640.76508
 93 04 08 16 02 00.0000000  0  7 18 25 15 19 14 29 22
 -13503422.40308 -10522148.82008  21848647.61108  21848650.53408
  12540623.03108   9771896.00608  22774287.19008  22774291.27908
        -0.39717         0.44917  23417864.64517  23417871.85217
  -6501276.41108  -5065929.66508  22788108.11008  22788113.28808
 -17866520.30609 -13921968.36908  19051813.06809  19051814.98908
 -17823592.61808 -13888517.03408  20016001.10108  20016002.29508
 -20766175.67808 -16181434.78908  20219350.01708  20219352.05408
 93 04 08 16 04 00.0000000  0  7 18 25 15 19 14 29 22
 -13823723.73608 -10771734.30008  21787696.37008  21787699.33608
  12870139.90108  10028661.79208  22836992.60508  22836996.69608
    342376.08307    266786.15807  23483017.54107  23483025.02807
  -6869174.52708  -5352603.35108  22718099.30508  22718104.35408
 -17867682.51309 -13922874.13808  19051592.03309  19051594.00408
 -17982275.90108 -14012166.44308  19985804.71708  19985805.94608
 -20767042.41108 -16182110.31108  20219185.20108  20219187.25108
 93 04 08 16 06 00.0000000  0  7 18 25 15 19 14 29 22
 -14141635.53208 -11019457.78708  21727199.82008  21727202.68308
  13201119.06008  10286567.00808  22899976.56908  22899980.71608
    684692.43607    533524.96107  23548159.20007  23548166.90707
  -7232169.33608  -5635456.31508  22649023.58808  22649028.55208
 -17858029.38309 -13915352.38008  19053429.08109  19053431.08208
 -18137177.17208 -14132868.83208  19956328.05508  19956329.28208
 -20756724.93208 -16174070.85408  20221148.64308  20221150.80208
 93 04 08 16 08 00.0000000  0  7 18 25 15 19 14 29 22
 -14457391.98308 -11265501.78708  21667113.41208  21667116.30108
  13533417.32908  10545500.09408  22963211.17208  22963215.83908
   1026595.29207    799941.52007  23613222.06607  23613229.95707
  -7590584.19708  -5914740.50508  22580819.39108  22580824.49008
 -17837337.50409 -13899229.00408  19057366.78309  19057368.80808
 -18288289.07308 -14250618.45908  19927572.52508  19927573.76208
 -20735420.47908 -16157470.10408  20225202.87208  20225205.02208
 93 04 08 16 10 00.0000000  0  7 18 25 15 19 14 29 22
 -14771116.09808 -11509962.15108  21607413.62908  21607416.61408
  13867141.55608  10805544.25108  23026717.45608  23026722.01108
   1367934.10307   1065918.57107  23678177.67507  23678185.92107
  -7944327.97808  -6190384.88008  22513504.15508  22513509.08508
 -17805980.70509 -13874795.30408  19063333.89509  19063336.00308
 -18435681.78308 -14365470.01008  19899524.71308  19899526.00608
 -20703134.03008 -16132311.95508  20231346.87508  20231349.02708
 93 04 08 16 12 00.0000000  0  6 18 19 25 14 29 22
 -15082451.73008 -11752561.36408  21548168.53808  21548171.37008
  -8292644.40308  -6461800.11508  22447221.67308  22447226.44208
  14202460.15208  11066830.78108  23090526.80108  23090531.84708
 -17764160.42009 -13842208.25208  19071292.18809  19071294.33908
 -18579064.84708 -14477197.15708  19872239.91208  19872241.17208
 -20659783.91808 -16098532.79408  20239596.18708  20239598.47008
 93 04 08 16 14 00.0000000  0  6 18 19 25 14 29 22
 -15391616.59808 -11993469.08208  21489336.38308  21489339.29108
  -8636001.20508  -6729350.69508  22381882.84808  22381887.76608
  14538684.81608  11328823.27008  23154508.71008  23154514.11708
 -17711417.08209 -13801109.74008  19081329.05009  19081331.20408
 -18718629.52008 -14585948.93908  19845681.53508  19845682.85908
 -20605547.47308 -16056270.80408  20249917.18808  20249919.54508
 93 04 08 16 16 00.0000000  0  7 18 19 25 15 14 29 22
 -15698622.75308 -12232694.68508  21430915.06808  21430917.87408
  -8974832.95708  -6993375.31208  22317405.23308  22317410.04608
  14875979.99708  11591649.84308  23218694.52408  23218699.98208
        -0.89917        -0.68216  23872118.03617  23872127.03316
 -17647792.28209 -13751532.17008  19093436.58909  19093438.85608
 -18854395.52008 -14691740.71808  19819846.33208  19819847.66308
 -20540563.28408 -16005633.95908  20262283.48008  20262285.77708
 93 04 08 16 18 00.0000000  0  7 18 19 25 15 14 29 22
 -16003265.79008 -12470078.89008  21372943.47908  21372946.35208
  -9308941.98808  -7253719.88608  22253826.33408  22253831.06908
  15214203.67508  11855199.94908  23283057.01708  23283062.34408
    337251.18806    262791.75506  23936295.89406  23936305.17206
 -17573824.25809 -13693894.93808  19107512.40009  19107514.70308
 -18986431.35108 -14794625.86708  19794720.78908  19794722.13108
 -20464914.09608 -15946686.71708  20276679.18008  20276681.52308
 93 04 08 16 20 00.0000000  0  6 18 19 25 29 14 22
 -16305921.67108 -12705914.65508  21315350.01808  21315352.85508
  -9638206.76508  -7510289.71408  22191169.29208  22191173.94108
  15552530.87308  12118830.71008  23347439.27008  23347444.69908
 -19114483.87408 -14894407.14408  19770353.32508  19770354.67308
 -17489670.67609 -13628320.91008  19123526.45709  19123528.80308
 -20378943.87108 -15879697.09508  20293038.87208  20293041.26808
 93 04 08 16 22 00.0000000  0  6 18 19 25 29 14 22
 -16606667.12808 -12940261.77808  21258120.06108  21258122.99308
  -9962926.17808  -7763317.62708  22129377.00008  22129381.79308
  15891519.51608  12382976.88108  23411947.22208  23411953.02108
 -19238833.53908 -14991303.07608  19746690.37708  19746691.80508
 -17395022.95809 -13554569.63508  19141537.45309  19141539.82608
 -20282690.32808 -15804694.49808  20311355.47608  20311357.94008
 93 04 08 16 24 00.0000000  0  6 18 19 25 29 14 22
 -16905312.30008 -13172972.30908  21201289.83008  21201292.69408
 -10282837.85908  -8012599.30008  22068499.71708  22068504.46408
  16230999.79908  12647506.05008  23476548.74108  23476555.18808
 -19359087.69808 -15085007.70208  19723806.90508  19723808.32308
 -17290405.89609 -13473050.04808  19161445.58209  19161448.02508
 -20176118.87008 -15721651.97108  20331635.47808  20331637.97908
 93 04 08 16 26 00.0000000  0  6 18 19 25 29 14 22
 -17201873.37508 -13404058.85408  21144856.10308  21144859.08508
 -10598074.21508  -8258237.89008  22008512.25308  22008516.82508
  16570761.46507  12912254.45408  23541203.99007  23541210.43108
 -19475622.61308 -15175814.21508  19701631.03408  19701632.45608
 -17175619.32209 -13383606.18108  19183288.88609  19183291.40408
 -20059484.52308 -15630768.23408  20353830.37808  20353832.92908
 93 04 08 16 28 00.0000000  0  7 18 19 25 28 29 14 22
 -17496463.62408 -13633609.70108  21088797.44808  21088800.40308
 -10909227.76208  -8500695.06808  21949301.55308  21949306.07808
  16910268.04108  13176804.06908  23605810.71208  23605817.38208
        -0.45617         0.35217  24291125.55617  24291137.12517
 -19588706.66608 -15263931.75208  19680112.01008  19680113.44808
 -17050905.75209 -13286426.99908  19207021.20909  19207023.75108
 -19933235.21308 -15532392.32308  20377854.92208  20377857.57608
 93 04 08 16 30 00.0000000  0  7 18 19 25 28 29 14 22
 -17788981.70008 -13861545.87008  21033133.11508  21033136.11808
 -11215900.18608  -8739660.48808  21890943.68908  21890948.22008
  17249288.90908  13440975.20707  23670324.70708  23670331.77707
   -287161.15707   -223760.41407  24236480.14607  24236491.56407
 -19698187.32108 -15349241.45308  19659278.62108  19659280.10708
 -16916632.99109 -13181799.11308  19232572.65909  19232575.24108
 -19797345.97708 -15426504.79108  20403713.96208  20403716.59008
 93 04 08 16 32 00.0000000  0  7 19 25 28 29 14 22 18
 -11517711.87508  -8974838.35708  21833510.72508  21833515.23908
  17588799.58908  13705528.06507  23734932.22908  23734939.53707
   -574036.70407   -447298.98107  24181889.07107  24181900.28507
 -19803549.23008 -15431341.75608  19639228.96108  19639230.49108
 -16772468.46909 -13069463.37308  19260006.50009  19260009.13308
 -19651613.76308 -15312947.42708  20431446.01608  20431448.74508
 -18079584.41008 -14087989.55408  20977833.13908  20977836.20708
 93 04 08 16 34 00.0000000  0  7 19 25 28 29 14 22 18
 -11814709.71308  -9206265.18308  21776993.88808  21776998.42308
  17928473.18407  13970207.85107  23799570.86207  23799578.02407
   -860228.30007   -670304.54307  24127427.89307  24127438.80307
 -19904230.01708 -15509794.44108  19620070.18908  19620071.71108
 -16617917.94509 -12949034.66808  19289416.70609  19289419.43008
 -19495927.25308 -15191633.49508  20461072.42408  20461075.14108
 -18367548.37208 -14312377.07708  20923035.45308  20923038.46808
 93 04 08 16 36 00.0000000  0  7 19 25 28 29 14 22 18
 -12107123.03208  -9434119.66908  21721349.35608  21721353.99408
  18268043.83207  14234807.41307  23864189.54007  23864197.24707
  -1146011.47807   -892991.82507  24073044.37507  24073055.15507
 -20000728.82408 -15584988.44508  19601707.15708  19601708.75008
 -16453991.87609 -12821300.34308  19320610.97209  19320613.76308
 -19330630.02908 -15062830.71608  20492527.56308  20492530.38308
 -18652976.20508 -14534788.38308  20868720.36208  20868723.47008
 93 04 08 16 38 00.0000000  0  7 19 25 29 14 22 18 28
 -12394841.94808  -9658316.17008  21666598.38108  21666602.76408
  18607257.66607  14499128.94207  23928740.59007  23928748.42907
 -20093253.36108 -15657085.62308  19584100.44108  19584102.02108
 -16280342.33509 -12685989.29608  19353655.58409  19353658.44408
 -19155974.14508 -14926735.48908  20525763.75008  20525766.54808
 -18936102.38708 -14755406.22908  20814843.37308  20814846.26008
  -1431473.11507  -1115428.65607  24018722.20607  24018732.85207
 93 04 08 16 40 00.0000000  0  7 19 25 29 14 22 18 28
 -12678066.77308  -9879010.80908  21612702.44908  21612706.86208
  18946184.03907  14763226.47107  23993236.86107  23993245.09107
 -20181583.67308 -15725914.57408  19567291.87508  19567293.49008
 -16097237.19409 -12543310.25908  19388499.59509  19388502.50308
 -18972253.33808 -14783576.69708  20560724.80208  20560727.79008
 -19216934.09508 -14974236.18308  20761402.89008  20761405.88708
  -1716209.21108  -1337300.38007  23964538.40608  23964548.66107
 93 04 08 16 42 00.0000000  0  7 19 25 28 29 14 22 18
 -12956794.94408 -10096201.60308  21559662.27708  21559666.68808
  19284802.46907  15027084.00707  24057674.50807  24057682.87907
  -2000197.44208  -1558589.50608  23910496.94608  23910507.24608
 -20265969.59308 -15791669.98608  19551233.85008  19551235.51608
 -15904914.31409 -12393448.57708  19425097.62909  19425100.65508
 -18779491.04508 -14633372.61308  20597406.47008  20597409.57008
 -19495388.80308 -15191213.93208  20708414.74908  20708417.79008
 93 04 08 16 44 00.0000000  0  7 19 25 28 29 14 22 18
 -13230974.38908 -10309847.90308  21507487.76908  21507492.01608
  19622682.48907  15290366.20907  24121971.64907  24121980.37807
  -2283552.45908  -1779385.21008  23856575.90808  23856586.11808
 -20345948.73208 -15853991.54308  19536014.46708  19536016.18808
 -15703190.51808 -12236261.52608  19463484.64508  19463487.73008
 -18577696.33108 -14476130.29508  20635806.94708  20635810.08708
 -19771201.03008 -15406132.60708  20655929.52308  20655932.56508
 93 04 08 16 46 00.0000000  0  6 19 28 29 14 22 18
 -13500723.74008 -10520042.16808  21456156.06108  21456160.43808
  -2565851.69408  -1999358.20708  23802855.87208  23802865.89708
 -20420910.75808 -15912403.67108  19521749.77208  19521751.52008
 -15492346.21008 -12071967.59408  19503607.22008  19503610.37308
 -18367047.67408 -14311988.81708  20675892.34508  20675895.54208
 -20044630.16008 -15619194.33108  20603897.75308  20603900.76608
 93 04 08 16 48 00.0000000  0  6 19 28 29 14 22 18
 -13766035.50108 -10726778.55608  21405668.79408  21405673.21108
  -2846878.96308  -2218340.07108  23749377.85108  23749387.90308
 -20491673.64308 -15967543.73208  19508284.17108  19508285.96808
 -15272554.22608 -11900701.44808  19545432.48808  19545435.73408
 -18147763.69608 -14141118.54608  20717620.97608  20717624.28008
 -20315263.64208 -15830077.63108  20552397.87608  20552401.01208
 93 04 08 16 50 00.0000000  0  6 19 29 14 22 18 28
 -14026810.02508 -10929979.45708  21356045.01908  21356049.42008
 -20558124.54508 -16019323.82008  19495639.12908  19495640.94908
 -15043813.43708 -11722462.22308  19588960.70308  19588964.05008
 -17920105.88108 -13963723.22608  20760943.11408  20760946.52508
 -20583453.31708 -16039056.67108  20501363.18208  20501366.27008
  -3126357.17108  -2436114.89408  23696194.60208  23696204.52608
 93 04 08 16 52 00.0000000  0  6 19 28 29 14 22 18
 -14283120.17208 -11129701.66608  21307270.97908  21307275.14308
  -3404105.12708  -2652541.47708  23643340.64508  23643350.42908
 -20619722.29108 -16067322.24108  19483917.59508  19483919.47508
 -14806401.43808 -11537466.22608  19634139.02008  19634142.44608
 -17684105.56308 -13779827.28808  20805852.76808  20805856.37008
 -20849122.72808 -16246071.87008  20450808.04608  20450811.14408
 93 04 08 16 54 00.0000000  0  6 19 28 29 14 22 18
 -14535075.67308 -11326030.65808  21259325.34808  21259329.73508
  -3680170.27708  -2867656.83908  23590806.76608  23590816.37208
 -20677088.25408 -16112023.16808  19473001.36308  19473003.25208
 -14560427.69808 -11345798.75208  19680946.49908  19680950.00008
 -17440027.02908 -13589636.64908  20852299.70008  20852303.44008
 -21111871.08508 -16450810.91908  20400808.69908  20400811.85008
 93 04 08 16 56 00.0000000  0  6 19 28 29 14 22 18
 -14783018.06408 -11519232.54008  21212143.59708  21212147.94108
  -3954815.74508  -3081665.92008  23538543.38108  23538552.92008
 -20729896.33008 -16153172.50608  19462952.46408  19462954.43608
 -14306337.70408 -11147806.94408  19729298.52708  19729302.14208
 -17188171.83408 -13393386.29008  20900226.50608  20900230.20208
 -21371681.30708 -16653260.50408  20351368.59408  20351371.71008
 93 04 08 16 58 00.0000000  0  6 19 28 29 14 22 18
 -15026577.91608 -11709019.47208  21165795.66008  21165800.04708
  -4227671.84608  -3294280.70908  23486620.18908  23486629.74908
 -20777918.59108 -16190592.62908  19453814.28208  19453816.26008
 -14044190.71408 -10943536.97208  19779183.73308  19779187.46108
 -16928678.32508 -13191183.98208  20949606.83808  20949610.55208
 -21628973.23208 -16853747.77908  20302407.58808  20302410.69808
 93 04 08 17 00 00.0000000  0  6 22 19 28 29 14 18
 -16661561.36808 -12983041.34808  21000437.83108  21000441.71608
 -15265695.39208 -11895344.80508  21120293.10008  21120297.52408
  -4498396.91808  -3505234.90208  23435102.65208  23435112.00408
 -20821462.90308 -16224523.44208  19445528.19808  19445530.25808
 -13773751.03408 -10732805.15808  19830646.99808  19830650.80908
 -21883319.25208 -17051939.54308  20254007.23708  20254010.45508
 93 04 08 17 02 00.0000000  0  7 22 19 28 27 29 14 18
 -16386969.49408 -12769074.11708  21052691.30908  21052695.20908
 -15500851.11408 -12078583.05808  21075544.51908  21075548.90308
  -4766406.42408  -3714073.06908  23384101.91408  23384111.25908
         0.43417        -0.49116  24261812.34217  24261820.42516
 -20859893.22908 -16254469.32608  19438215.23308  19438217.34308
 -13495478.46708 -10515969.85208  19883600.89508  19883604.81508
 -22134541.51808 -17247697.19208  20206201.23308  20206204.41808
 93 04 08 17 04 00.0000000  0  7 22 19 28 27 29 14 18
 -16105181.70608 -12549499.69408  21106314.10008  21106318.15108
 -15731837.60508 -12258572.54308  21031589.28308  21031593.61608
  -5031781.70308  -3920858.53608  23333602.34808  23333611.58208
   -335093.49007   -261112.60807  24198046.24707  24198054.19807
 -20893600.10308 -16280734.59608  19431801.23308  19431803.34508
 -13209443.56708 -10293086.03508  19938031.88908  19938035.93908
 -22382768.14908 -17441120.59108  20158965.27508  20158968.47908
 93 04 08 17 06 00.0000000  0  7 22 28 27 29 14 19 18
 -15816741.71608 -12324741.74108  21161202.66408  21161206.97608
  -5295023.23808  -4125981.32908  23283508.71108  23283517.80308
   -668514.75707   -520921.36507  24134598.03607  24134606.45607
 -20922577.34108 -16303314.43908  19426287.18008  19426289.36308
 -12916409.78908 -10064748.51808  19993794.69808  19993798.88308
 -15959002.77808 -12435584.35308  20988361.21708  20988365.58308
 -22628055.53408 -17632253.67608  20112288.70708  20112291.93908
 93 04 08 17 08 00.0000000  0  7 22 27 28 29 14 19 18
 -15523193.19908 -12096003.11608  21217063.44608  21217067.89208
  -1002055.66507   -780823.48707  24071127.34307  24071135.94007
  -5557424.11208  -4330449.06408  23233575.31008  23233584.18008
 -20948119.48008 -16323217.59208  19421426.84008  19421429.02508
 -12617483.24808  -9831819.16108  20050678.88008  20050683.10708
 -16183775.35008 -12610731.78708  20945588.35708  20945592.74708
 -22871603.56308 -17822031.43708  20065943.11408  20065946.39408
 93 04 08 17 10 00.0000000  0  7 22 28 27 29 14 19 18
 -15223345.07208 -11862355.72008  21274123.11808  21274127.64308
  -5816827.65408  -4532581.29108  23184212.07008  23184220.87608
  -1333667.86207  -1039222.56007  24008023.80807  24008032.11507
 -20969199.77308 -16339643.99208  19417415.51408  19417417.79508
 -12311786.44908  -9593614.35808  20108851.37708  20108855.74308
 -16404751.91108 -12782921.28308  20903537.87108  20903542.35408
 -23112483.96208 -18009730.55008  20020105.14208  20020108.38508
 93 04 08 17 12 00.0000000  0  7 22 28 27 29 14 19 18
 -14916211.47808 -11623031.35108  21332569.09308  21332573.71408
  -6072375.83008  -4731709.42007  23135582.57908  23135591.06007
  -1662638.75107  -1295563.49707  23945422.63507  23945431.01507
 -20984436.83808 -16351517.22608  19414516.14808  19414518.45308
 -11998451.71508  -9349457.93108  20168477.42908  20168481.87808
 -16621027.45408 -12951447.70808  20862382.10208  20862386.47608
 -23349358.77408 -18194308.39908  19975029.46208  19975032.76308
 93 04 08 17 14 00.0000000  0  7 22 28 27 29 14 19 18
 -14602316.74008 -11378438.56608  21392301.57808  21392306.37708
  -6324291.98708  -4928007.42408  23087644.42008  23087652.90508
  -1989724.31807  -1550435.46507  23883180.36107  23883188.88007
 -20993827.25108 -16358834.62308  19412729.36608  19412731.76908
 -11677633.85608  -9099470.52608  20229527.43508  20229532.03908
 -16832754.68008 -13116430.00808  20822091.73608  20822096.18508
 -23582217.89708 -18375757.14108  19930717.92608  19930721.20408
 93 04 08 17 16 00.0000000  0  7 22 28 27 29 14 19 18
 -14282220.71008 -11129013.61308  21453214.25308  21453219.18508
  -6572351.50208  -5121300.35208  23040440.04108  23040448.50608
  -2314731.79807  -1803688.18907  23821333.70907  23821342.25007
 -20998001.48508 -16362087.46308  19411935.18508  19411937.57508
 -11350050.36008  -8844211.24208  20291864.99808  20291869.75808
 -17040385.64808 -13278220.41508  20782580.85808  20782585.38508
 -23811319.82108 -18554278.17008  19887121.33708  19887124.60708
 93 04 08 17 18 00.0000000  0  7 22 28 27 29 14 19 18
 -13955910.97408 -10874746.84408  21515309.38508  21515314.43808
  -6816449.75208  -5311506.62608  22993989.44608  22993998.02608
  -2637251.76007  -2055002.57707  23759960.26807  23759968.67607
 -20996570.64409 -16360972.72308  19412207.63309  19412210.10208
 -11015582.45108  -8583587.50708  20355512.52508  20355517.42508
 -17243831.15308 -13436749.39408  20743866.57908  20743870.96408
 -24036549.99708 -18729782.28308  19844261.46108  19844264.83108
 93 04 08 17 20 00.0000000  0  7 22 28 27 29 14 19 18
 -13623692.59008 -10615875.96008  21578528.75808  21578534.06908
  -7056702.30708  -5498716.25108  22948270.91408  22948279.47908
  -2957800.82307  -2304781.12107  23698961.83907  23698970.18807
 -20989711.13808 -16355627.86708  19413513.10008  19413515.59708
 -10674618.46308  -8317901.89108  20420396.29408  20420401.30608
 -17443099.23108 -13592023.20808  20705947.11008  20705951.57808
 -24257942.39308 -18902295.91108  19802132.01308  19802135.30208
 93 04 08 17 22 00.0000000  0  7 22 28 27 29 14 19 18
 -13286124.49308 -10352836.50108  21642766.37008  21642771.76408
  -7293128.49108  -5682944.21008  22903280.40008  22903288.88208
  -3276656.50707  -2553240.17207  23638285.71407  23638294.02507
 -20977443.92908 -16346069.21508  19415847.64008  19415850.16108
 -10327878.01408  -8047715.14208  20486379.23208  20486384.45508
 -17638791.06708 -13744510.32908  20668708.09908  20668712.52208
 -24475638.92008 -19071929.64708  19760705.76908  19760709.09308
 93 04 08 17 24 00.0000000  0  7 22 28 27 29 14 19 18
 -12943181.49808 -10085608.84608  21708026.76808  21708032.22108
  -7525421.64108  -5863951.63308  22859076.20908  22859084.82708
  -3593838.12907  -2800394.71507  23577928.01307  23577936.73707
 -20959498.18508 -16332085.73808  19419262.73708  19419265.41308
  -9975426.76208  -7773078.43908  20553449.00008  20553454.31508
 -17830528.12108 -13893915.83208  20632221.79208  20632226.31408
 -24689178.01508 -19238323.81608  19720070.68108  19720074.06708
 93 04 08 17 26 00.0000000  0  7 22 28 27 29 14 19 18
 -12594708.95108  -9814072.48408  21774339.46508  21774345.06508
  -7752936.28708  -6041235.59508  22815781.51608  22815790.00508
  -3908615.89007  -3045676.09807  23518027.85307  23518036.31107
 -20936029.42008 -16313798.61008  19423728.91508  19423731.54508
  -9616686.53108  -7493541.27008  20621715.46708  20621720.98608
 -18018239.83308 -14040184.75308  20596501.54308  20596506.01508
 -24898137.84608 -19401149.73808  19680307.06608  19680310.43708
 93 04 08 17 28 00.0000000  0  7 22 27 28 29 14 19 18
 -12241428.93608  -9538790.06608  21841566.80608  21841572.83008
  -4221898.17908  -3289792.14007  23458412.35308  23458420.74807
  -7975857.87708  -6214940.58608  22773360.93808  22773369.28208
 -20906794.23308 -16291018.16908  19429292.32708  19429295.07008
  -9252462.95608  -7209731.40808  20691025.46208  20691031.11608
 -18202476.48008 -14183745.85008  20561442.43108  20561446.87808
 -25103475.22108 -19561152.96708  19641232.68108  19641236.07908
 93 04 08 17 30 00.0000000  0  7 22 27 28 29 14 19 18
 -11884016.05708  -9260287.24408  21909580.76008  21909586.98808
  -4533874.45207  -3532890.50407  23399045.02107  23399053.57507
  -8194943.08208  -6385656.19208  22731670.17808  22731678.52708
 -20872813.29708 -16264539.76108  19435758.88408  19435761.67108
  -8883561.78008  -6922276.68108  20761225.65708  20761231.48208
 -18383537.80808 -14324832.67808  20526987.72008  20526992.25608
 -25305297.98308 -19718417.51808  19602827.16408  19602830.57508
 93 04 08 17 32 00.0000000  0  7 22 27 28 29 14 19 18
 -11522648.54108  -8978702.86608  21978347.25508  21978353.55408
  -4844614.61407  -3775025.63507  23339913.19907  23339921.67307
  -8410088.48308  -6553301.81608  22690729.28108  22690737.62608
 -20833688.87608 -16234053.44908  19443204.19508  19443207.04308
  -8510269.28108  -6631400.19408  20832261.41308  20832267.44108
 -18561808.20408 -14463744.76708  20493064.10608  20493068.60108
 -25503325.34108 -19872724.63508  19565143.85108  19565147.31108
 93 04 08 17 34 00.0000000  0  7 22 27 28 29 14 19 18
 -11157325.94608  -8694036.64808  22047866.40708  22047872.86808
  -5154379.65507  -4016400.89408  23280966.68507  23280975.28008
  -8620502.87708  -6717260.93108  22650688.78908  22650696.94408
 -20789012.24908 -16199240.75708  19451706.09908  19451708.97808
  -8132322.04608  -6336896.66008  20904182.91208  20904189.22608
 -18736803.08308 -14600104.48308  20459763.75908  20459768.27908
 -25697181.14809 -20023781.20108  19528254.37709  19528257.83908
 93 04 08 17 36 00.0000000  0  7 14 22 27 28 29 19 18
  -7750204.96608  -6039143.93508  20976898.03708  20976904.50608
 -10788147.43208  -8406365.84708  22118119.32508  22118125.91908
  -5462653.97507  -4256614.63808  23222304.10207  23222312.44008
  -8826105.84508  -6877470.82308  22611563.44808  22611571.76808
 -20739292.73408 -16160498.52808  19461167.56608  19461170.54808
 -18908363.12808 -14733787.72108  20427116.96708  20427121.56308
 -25887131.11009 -20171794.25908  19492108.18009  19492111.64908
 93 04 08 17 38 00.0000000  0  7 14 22 27 28 29 19 18
  -7363647.76008  -5737931.38708  21050458.16708  21050464.81308
 -10414966.70008  -8115576.45808  22189133.81708  22189140.59608
  -5769223.73007  -4495500.21208  23163965.77907  23163974.22908
  -9026384.25108  -7033531.72108  22573451.66308  22573459.75908
 -20683539.58108 -16117054.77808  19471777.27408  19471780.24508
 -19076668.01508 -14864934.46808  20395089.66608  20395094.25408
 -26072553.71809 -20316279.49608  19456823.43309  19456826.97908
 93 04 08 17 40 00.0000000  0  7 14 22 27 28 29 19 18
  -6972454.26808  -5433106.18908  21124900.44608  21124907.32108
 -10037822.59508  -7821698.71208  22260902.65508  22260909.59908
  -6074004.59208  -4732991.79608  23105968.04908  23105976.55808
  -9221002.32408  -7185181.98308  22536416.85608  22536425.07608
 -20621848.90608 -16068984.38508  19483516.79508  19483519.90208
 -19241512.83708 -14993385.02808  20363720.79408  20363725.36408
 -26252973.30709 -20456866.27308  19422490.89209  19422494.37908
 93 04 08 17 42 00.0000000  0  7 14 22 27 28 29 19 18
  -6576749.61008  -5124765.81008  21200201.19208  21200208.30208
  -9656523.03108  -7524582.92508  22333462.06208  22333469.23408
  -6376599.52408  -4968779.97208  23048386.06508  23048394.52808
  -9409737.65708  -7332248.28808  22500501.54508  22500509.87008
 -20553950.68408 -16016076.96008  19496437.63108  19496440.80508
 -19402312.03208 -15118683.17008  20333121.82208  20333126.40608
 -26428072.43509 -20593307.24908  19389170.64009  19389174.20308
 93 04 08 17 44 00.0000000  0  7 14 22 27 28 29 19 18
  -6176521.89008  -4812900.99008  21276362.72608  21276370.03708
  -9271247.73008  -7224369.18208  22406778.19708  22406785.44508
  -6676990.67308  -5202850.77808  22991223.27308  22991231.62308
  -9592136.09208  -7474376.76908  22465792.20208  22465800.42408
 -20479283.92308 -15957895.34608  19510646.42508  19510649.67208
 -19559078.87508 -15240839.20908  20303290.16808  20303294.79308
 -26597819.44109 -20725577.74208  19356868.97309  19356872.55508
 93 04 08 17 46 00.0000000  0  7 14 22 27 28 29 19 18
  -5772461.16308  -4498049.45508  21353253.65008  21353261.17208
  -8882587.33708  -6921517.69108  22480738.42308  22480745.80208
  -6975508.68108  -5435461.95308  22934417.16308  22934425.33308
  -9768467.76808  -7611777.92108  22432237.36208  22432245.46108
 -20398486.24708 -15894936.39108  19526021.91708  19526025.18808
 -19712614.31208 -15360477.31208  20274073.35808  20274078.00408
 -26762511.96409 -20853909.68508  19325529.08909  19325532.71208
 93 04 08 17 48 00.0000000  0  7 14 22 27 28 29 19 18
  -5364902.13008  -4180472.00408  21430810.28408  21430818.14908
  -8490628.41608  -6616095.93008  22555326.29308  22555333.93908
  -7272244.73008  -5666684.55708  22877949.79208  22877957.95608
  -9938569.75208  -7744324.80908  22399867.95108  22399875.95908
 -20311424.38608 -15827096.28208  19542589.45708  19542592.82608
 -19862782.03608 -15477491.20808  20245497.39508  20245502.05508
 -26921632.41509 -20977899.74308  19295249.61209  19295253.20008
 93 04 08 17 50 00.0000000  0  7 14 22 27 28 29 19 18
  -4953875.38908  -3860192.48408  21509026.88008  21509034.99608
  -8095544.33808  -6308238.97408  22630508.80308  22630516.65608
  -7566976.77808  -5896345.54108  22821863.98808  22821871.97508
 -10102539.93908  -7872093.70108  22368665.30008  22368673.47108
 -20218207.50708 -15754460.07008  19560328.30408  19560331.76608
 -20009447.03708 -15591775.72108  20217588.08808  20217592.74608
 -27075338.28009 -21097670.64308  19266000.42309  19266004.05208
 93 04 08 17 52 00.0000000  0  7 14 22 27 28 29 19 18
  -4539515.90708  -3537316.06108  21587877.72708  21587886.12908
  -7697610.33608  -5998161.26708  22706233.76208  22706241.63208
  -7860242.63008  -6124864.03408  22766056.97108  22766065.11608
 -10259799.24308  -7994633.30608  22338739.76608  22338747.85608
 -20118751.69708 -15676962.35608  19579254.35208  19579257.91008
 -20152533.46508 -15703271.71508  20190359.72008  20190364.40508
 -27223968.06009 -21213486.14308  19237717.13409  19237720.78508
 93 04 08 17 54 00.0000000  0  7 14 22 27 28 29 19 18
  -4121783.57708  -3211811.47808  21667370.33508  21667379.09308
  -7296868.54608  -5685895.70308  22782492.96808  22782501.03708
  -8151584.16808  -6351883.05708  22710616.19008  22710624.24208
 -10410171.29008  -8111806.23908  22310124.92308  22310132.88808
 -20012972.63008 -15594537.42908  19599383.72008  19599387.31208
 -20292367.27508 -15812233.21708  20163750.27908  20163754.99808
 -27366627.01709 -21324649.04008  19210570.14509  19210573.78108
 93 04 08 17 56 00.0000000  0  7 14 22 27 28 29 19 18
  -3701909.98508  -2884638.42208  21747270.47008  21747279.44208
  -6894023.45808  -5371991.22808  22859152.19208  22859160.72308
  -8441558.02308  -6577836.36108  22655435.90908  22655443.77808
 -10554335.31108  -8224141.80408  22282691.29408  22282699.07808
 -19901216.76108 -15507455.28108  19620650.40608  19620654.10208
 -20429529.30209 -15919112.78908  20137649.28209  20137654.00808
 -27504061.28609 -21431740.74608  19184417.32809  19184421.00308
 93 04 08 17 58 00.0000000  0  7 14 22 27 28 29 19 18
  -3279691.20808  -2555638.00308  21827617.01008  21827626.16108
  -6489172.01308  -5056523.32408  22936193.55908  22936202.27808
  -8730317.40908  -6802843.34908  22600486.58408  22600494.34008
 -10692206.89908  -8331574.23708  22256455.36908  22256463.11208
 -19783407.24108 -15415655.99508  19643069.07108  19643072.79508
 -20563664.03909 -16023633.38208  20112124.35109  20112129.07608
 -27636108.21609 -21534634.52908  19159289.65609  19159293.33708
 93 04 08 18 00 00.0000000  0  7 14 22 27 29 19 18 28
  -2854798.75108  -2224554.23308  21908472.31908  21908481.73208
  -6082017.60908  -4739260.92508  23013673.10008  23013682.03008
  -9017120.78008  -7026326.16808  22545909.55908  22545917.20808
 -19659291.12808 -15318942.48208  19666687.83908  19666691.66108
 -20694633.97509 -16125687.85808  20087201.56609  20087206.37208
 -27762053.79009 -21632774.01408  19135323.13009  19135326.81608
 -10823101.54308  -8433570.09308  22231546.97108  22231554.79308
 93 04 08 18 02 00.0000000  0  7 14 22 27 29 19 18 28
  -2427514.39408  -1891606.66008  21989782.79508  21989792.61608
  -5672493.31108  -4420151.79508  23091603.44708  23091612.72408
  -9301925.07208  -7248251.25908  22491712.84808  22491720.24508
 -19528499.93608 -15217027.59008  19691576.81708  19691580.71808
 -20822107.34909 -16225017.73808  20062944.20309  20062948.98908
 -27881780.18209 -21726067.37308  19112539.96709  19112543.68408
 -10946386.39908  -8529636.17808  22208086.61108  22208094.54008
 93 04 08 18 04 00.0000000  0  7 29 14 22 27 19 18 28
 -19390791.29708 -15109722.45708  19717782.11508  19717786.08908
  -1998212.37708  -1557086.91608  22071477.20908  22071487.44008
  -5260968.79107  -4099484.02308  23169914.43907  23169923.81208
  -9585159.67408  -7468953.26308  22437814.78908  22437822.28108
 -20946248.47909 -16321751.09608  20039320.92009  20039325.67208
 -27995438.20309 -21814632.13608  19090911.64609  19090915.36008
 -11062346.08608  -8619994.29408  22186020.16108  22186028.01008
 93 04 08 18 06 00.0000000  0  7 29 14 22 27 19 18 28
 -19246817.88308 -14997535.69408  19745179.57908  19745183.65108
  -1566758.00408  -1220890.05708  22153581.20708  22153591.70508
  -4847621.62507  -3777395.93808  23248572.18007  23248581.75708
  -9866702.85508  -7688337.26508  22384238.65308  22384246.20208
 -21067037.76709 -16415872.61308  20016335.49709  20016340.23308
 -28102637.96909 -21898164.46408  19070512.22109  19070515.95708
 -11170762.61808  -8704474.57708  22165389.09308  22165396.95708
 93 04 08 18 08 00.0000000  0  8 29 14 22 27 11 19 18 28
 -19096459.51208 -14880373.62908  19773792.05508  19773796.21408
  -1133565.12008   -883338.55408  22236016.09908  22236026.96308
  -4432706.51508  -3454086.06508  23327528.53008  23327538.10708
 -10146582.22608  -7906424.83908  22330979.18808  22330986.67408
        -0.23917        -0.56717  24076216.31717  24076235.90217
 -21184793.39709 -16507630.27908  19993927.28209  19993932.03008
 -28203205.25409 -21976528.61608  19051374.92709  19051378.67008
 -11271402.37508  -8782895.03208  22146237.82708  22146245.73108
 93 04 08 18 10 00.0000000  0  8 29 14 22 27 11 19 18 28
 -18939603.01508 -14758148.07608  19803641.12108  19803645.30308
   -698720.92108   -544500.35408  22318765.36608  22318776.51708
  -4016432.54208  -3129717.28008  23406743.30308  23406753.02508
 -10424854.62108  -8123260.23608  22278025.53308  22278032.92108
   -332461.95507   -259060.06807  24012949.78607  24012968.88407
 -21299774.42309 -16597225.92508  19972047.22009  19972051.95508
 -28297614.61509 -22050094.38608  19033409.46309  19033413.19408
 -11364635.66008  -8855544.23408  22128496.10308  22128503.92608
 93 04 08 18 12 00.0000000  0  8 29 14 22 27 11 19 18 28
 -18776577.26308 -14631115.36008  19834664.12108  19834668.41108
   -263125.38808   -205076.74508  22401657.54708  22401669.04108
  -3599127.65807  -2804545.18308  23486154.24007  23486164.01408
 -10701586.61808  -8338895.33508  22225365.14008  22225372.34508
   -665405.39608   -518494.91607  23949591.54308  23949610.23307
 -21412028.40909 -16684696.55508  19950685.99309  19950690.70708
 -28385954.08309 -22118930.36808  19016599.04209  19016602.79208
 -11450529.81008  -8922474.67608  22112150.82608  22112158.72108
 93 04 08 18 14 00.0000000  0  8 14 29 22 27 11 19 18 28
    173370.33608    135048.26808  22484721.04608  22484732.95908
 -18607138.41308 -14499085.45908  19866907.52508  19866911.88008
  -3180900.09807  -2478654.05308  23565740.56807  23565750.43608
 -10976617.85908  -8553205.15208  22173028.26908  22173035.42208
   -998583.80808   -778112.75307  23886188.46108  23886206.73807
 -21521367.67809 -16769895.99508  19929879.41609  19929884.17708
 -28467471.28309 -22182450.30508  19001086.89709  19001090.63608
 -11528773.86608  -8983444.04108  22097261.61008  22097269.37908
 93 04 08 18 16 00.0000000  0  8 14 29 22 27 11 19 18 28
    611138.23108    476164.51508  22568026.68508  22568038.98408
 -18430911.87008 -14361766.42808  19900442.60008  19900447.04808
  -2761445.45208  -2151806.67908  23645560.65008  23645570.41808
 -11250118.53008  -8766322.30208  22120982.51708  22120989.75008
  -1331334.50608  -1037397.15007  23822866.54608  23822884.67307
 -21627332.35609 -16852465.91508  19909714.98809  19909719.74708
 -28542181.22009 -22240665.86808  18986870.07809  18986873.82508
 -11598575.29308  -9037834.72108  22083978.79008  22083986.59508
 93 04 08 18 18 00.0000000  0  8 14 29 22 27 11 19 18 28
   1049665.11708    817872.13908  22651476.85608  22651489.60408
 -18247901.75908 -14219161.45908  19935268.50908  19935273.01808
  -2340912.88908  -1824119.39208  23725585.68008  23725595.58608
 -11521807.03608  -8978027.40508  22069281.79808  22069288.85908
  -1663451.86808  -1296187.98408  23759665.37808  23759682.87208
 -21730255.97409 -16932666.13408  19890129.31609  19890134.06308
 -28609813.95809 -22293366.73008  18974000.01609  18974003.76508
 -11660289.10108  -9085923.33608  22072235.10008  22072242.82808
 93 04 08 18 20 00.0000000  0  8 14 29 22 27 11 19 18 28
   1489001.42508   1160210.44108  22735080.97308  22735094.13208
 -18058388.79208 -14071489.32808  19971331.87708  19971336.48008
  -1919637.16708  -1495852.98008  23805751.93808  23805762.06708
 -11791778.13708  -9188394.23608  22017907.73708  22017914.78308
  -1994918.17508  -1554471.69108  23696588.20508  23696605.21308
 -21830223.17509 -17010562.64008  19871106.14509  19871110.92908
 -28670545.99609 -22340690.42808  18962443.08109  18962446.85908
 -11714015.55508  -9127788.03908  22062011.06608  22062018.83508
 93 04 08 18 22 00.0000000  0  8 14 29 22 27 11 19 18 28
   1928957.81408   1503031.88808  22818803.33708  22818816.79208
 -17862328.46608 -13918715.38808  20008641.17008  20008645.91108
  -1497812.87707  -1167159.15808  23886022.55007  23886032.84908
 -12060225.58908  -9397573.83708  21966823.69308  21966830.73508
  -2325573.58908  -1812123.76807  23633665.42908  23633681.99507
 -21927345.88109 -17086242.64208  19852624.29009  19852629.05708
 -28724237.89409 -22382528.30308  18952225.90209  18952229.64308
 -11759512.96808  -9163240.54808  22053353.14308  22053360.88408
 93 04 08 18 24 00.0000000  0  8 14 29 22 27 11 19 18 28
   2368749.41608   1845724.90808  22902494.20808  22902507.98008
 -17659977.31808 -13761039.51708  20047147.56108  20047152.35408
  -1075460.78107   -838054.02808  23966393.95307  23966404.14408
 -12326874.40908  -9605351.95208  21916082.01008  21916088.91408
  -2655086.94808  -2068886.14908  23570960.08208  23570976.55708
 -22021596.81609 -17159684.91908  19834688.95209  19834693.70308
 -28770666.67909 -22418706.63008  18943390.84909  18943394.62708
 -11796469.67808  -9192037.95808  22046320.60508  22046328.26708
 93 04 08 18 26 00.0000000  0  8 14 29 22 27 11 19 18 28
   2808937.73508   2188726.99807  22986260.64608  22986274.93907
 -17451052.19708 -13598241.10708  20086904.98708  20086909.90208
   -652754.28408   -508672.71407  24046832.71208  24046842.86507
 -12591986.37108  -9811932.54108  21865632.76108  21865639.65908
  -2983281.69008  -2324621.16808  23508505.80808  23508522.09908
 -22112877.82409 -17230812.94608  19817318.75809  19817323.50208
 -28809863.63009 -22449249.78608  18935931.99409  18935935.78908
 -11825013.40808  -9214279.81608  22040888.86008  22040896.54008
 93 04 08 18 28 00.0000000  0  8 14 29 22 27 11 19 18 28
   3249284.97308   2531852.89507  23070057.38108  23070071.97807
 -17235500.14808 -13430278.89408  20127923.52808  20127928.50208
   -229934.33808   -179203.04107  24127293.00808  24127303.31207
 -12855524.17908 -10017286.44908  21815483.09108  21815490.04508
  -3310049.30508  -2579244.24807  23446323.33008  23446339.09707
 -22201159.66109 -17299603.97308  19800519.27309  19800524.07708
 -28841966.93509 -22474265.45808  18929823.02409  18929826.80508
 -11845268.11808  -9230062.72008  22037034.48708  22037042.07708
 93 04 08 18 30 00.0000000  0  8 27 29 14 22 11 19 18 28
 -13117699.30208 -10221578.49408  21765592.56908  21765599.43208
 -17013636.19908 -13257398.36208  20170143.19208  20170148.30108
   3688852.79307   2874371.39707  23153705.50107  23153720.89107
    192803.54007    150202.79407  24207737.45507  24207748.04607
  -3635237.64408  -2832636.77807  23384441.37708  23384456.71307
 -22286858.14609 -17366382.01208  19784211.40309  19784216.16708
 -28866801.43209 -22493617.12808  18925097.25509  18925101.10408
 -11857196.35908  -9239357.51108  22034764.59508  22034772.37308
 93 04 08 18 32 00.0000000  0  8 27 29 14 22 11 19 18 28
 -13378308.06908 -10424650.00908  21716000.17008  21716007.05608
 -16785401.45408 -13079553.60708  20213575.17908  20213580.39008
   4128118.02007   3216654.02807  23237296.23807  23237312.44007
    615530.84507    479600.28107  24288180.11407  24288190.78707
  -3958430.19508  -3084474.14007  23322939.17208  23322954.32507
 -22369809.93409 -17431019.79408  19768426.25409  19768431.00008
 -28884014.89509 -22507030.33408  18921821.75309  18921825.59008
 -11860725.37408  -9242107.46108  22034093.16808  22034100.83808
 93 04 08 18 34 00.0000000  0  8 27 29 14 22 11 19 18 28
 -13637016.36708 -10626240.69008  21666769.49608  21666776.19208
 -16550758.73808 -12896715.61608  20258226.53608  20258231.93208
   4566566.15407   3558299.79507  23320731.87407  23320748.32107
   1038126.32107    808895.28707  24368597.59007  24368608.16007
  -4279406.41308  -3334584.35008  23261858.41608  23261873.55008
 -22449660.99509 -17493241.39908  19753231.04709  19753235.88408
 -28893636.79309 -22514528.02408  18919990.80309  18919994.70208
 -11855470.75308  -9238013.00008  22035093.28908  22035100.97108
 93 04 08 18 36 00.0000000  0  8 27 29 14 22 11 19 18 28
 -13894644.70808 -10826989.86408  21617744.32208  21617750.91608
 -16310104.18908 -12709193.10208  20304021.85908  20304027.40908
   5003866.54707   3899051.03707  23403949.30807  23403966.00507
   1460041.57307   1137660.35107  24448885.57107  24448895.92607
  -4598375.81308  -3583130.70508  23201159.69908  23201174.31708
 -22527180.30409 -17553646.07108  19738479.66309  19738484.56408
 -28896159.98309 -22516494.26008  18919510.82709  18919514.72808
 -11841585.02408  -9227193.00608  22037735.62908  22037743.30208
 93 04 08 18 38 00.0000000  0  7 27 14 29 11 19 18 28
 -14150900.96208 -11026669.90008  21568980.19308  21568986.89308
   5440011.93207   4238901.91607  23486947.16307  23486964.29107
 -16063098.40808 -12516721.57708  20351025.95708  20351031.59208
  -4914910.48608  -3829779.79308  23140924.21508  23140938.46808
 -22602191.86209 -17612096.67408  19724205.48209  19724210.32808
 -28891175.29809 -22512610.21508  18920459.42109  18920463.32508
 -11819704.37208  -9210143.25708  22041899.43208  22041907.17308
 93 04 08 18 40 00.0000000  0  8 27 14 29 02 11 19 18 28
 -14405475.85708 -11225039.78308  21520536.13008  21520542.63808
   5875344.60607   4578119.22707  23569790.37107  23569808.51007
 -15809795.09108 -12319342.91608  20399228.41008  20399234.16408
        -0.03218         0.18117  23231262.39518  23231274.71817
  -5228564.95208  -4074184.64808  23081236.61608  23081251.02308
 -22674450.80609 -17668402.39808  19710455.09009  19710459.89808
 -28878376.65609 -22502637.37308  18922895.00409  18922898.95608
 -11789158.86408  -9186341.69708  22047712.20408  22047720.01808
 93 04 08 18 42 00.0000000  0  8 27 14 02 29 11 19 18 28
 -14658549.13208 -11422239.54908  21472377.82308  21472384.45808
   6308871.84107   4915929.32807  23652290.22607  23652309.31907
   -371573.74608   -289536.83108  23160553.57408  23160565.56208
 -15550255.39508 -12117104.76008  20448617.58808  20448623.42308
  -5539297.88008  -4316313.17908  23022105.51908  23022119.41808
 -22744136.20309 -17722702.76708  19697194.43209  19697199.25308
 -28857912.73809 -22486691.60608  18926789.29709  18926793.27808
 -11749660.89208  -9155564.17508  22055228.34108  22055236.18208
 93 04 08 18 44 00.0000000  0  8 27 14 02 29 11 19 18 28
 -14910167.79908 -11618305.87708  21424496.19008  21424502.77708
   6741088.13407   5252717.75407  23734540.83507  23734561.01207
   -740133.80608   -576725.51508  23090418.50108  23090429.90408
 -15284674.71508 -11910159.37208  20499156.39408  20499162.37708
  -5846837.58808  -4555953.51908  22963581.90608  22963595.50808
 -22810975.78209 -17774785.62808  19684475.38009  19684480.21608
 -28829609.26909 -22464637.11008  18932175.38609  18932179.37908
 -11701702.07908  -9118193.72508  22064354.75008  22064362.60708
 93 04 08 18 46 00.0000000  0  8 27 14 02 11 29 19 18 28
 -15160345.71608 -11813249.54308  21376888.82208  21376895.16708
   7171581.14007   5588163.15207  23816463.74907  23816484.90107
  -1105995.82008   -861811.89508  23020796.38508  23020808.03308
  -6151046.44308  -4792998.45808  22905692.23908  22905705.62208
 -15013269.53708 -11698675.43308  20550803.58808  20550809.65608
 -22875154.82909 -17824795.36308  19672262.56209  19672267.44208
 -28793515.93809 -22436512.60708  18939043.86109  18939047.90808
 -11644980.17808  -9073994.90808  22075148.59608  22075156.47908
 93 04 08 18 48 00.0000000  0  8 27 14 02 11 29 19 18 28
 -15409148.78608 -12007121.94108  21329543.09408  21329549.47708
   7600002.71307   5921994.34307  23897992.49307  23898014.06107
  -1469219.58108  -1144842.64808  22951676.71408  22951687.88508
  -6451665.30608  -5027246.01408  22848485.73308  22848498.81408
 -14735628.16008 -11482332.12108  20603637.45008  20603643.79308
 -22936788.45009 -17872821.65108  19660534.14809  19660539.01708
 -28749873.08909 -22402505.34208  18947348.94409  18947353.02608
 -11579402.33108  -9022895.38508  22087627.73308  22087635.67808
 93 04 08 18 50 00.0000000  0  7 27 02 11 19 29 18 28
 -15656440.92408 -12199817.00808  21282484.85908  21282491.25008
  -1829254.97108  -1425389.08608  22883163.79608  22883174.78508
  -6748450.66708  -5258506.44207  22792008.58008  22792021.39607
 -22995689.82509 -17918718.89608  19649325.64909  19649330.59508
 -14452226.18008 -11261500.03908  20657567.41608  20657573.99108
 -28698209.98409 -22362248.53008  18957180.21709  18957184.34508
 -11505315.25708  -8965165.32308  22101726.32508  22101734.27808
 93 04 08 18 52 00.0000000  0  8 27 16 02 11 19 29 18 28
 -15902112.30608 -12391249.14508  21235735.02308  21235741.48608
        -0.28317         0.21817  23669142.06817  23669152.26117
  -2186399.52908  -1703683.02208  22815200.92308  22815211.92608
  -7041266.53108  -5486673.75208  22736286.86708  22736299.59008
 -23052297.04409 -17962828.47608  19638553.71709  19638558.61708
 -14163037.94108 -11036159.20108  20712598.62408  20712605.39208
 -28639011.92409 -22316120.32708  18968445.35709  18968449.51708
 -11422671.16308  -8900767.46608  22117452.89308  22117460.92708
 93 04 08 18 54 00.0000000  0  8 27 16 02 11 19 18 29 28
 -16146123.15008 -12581387.33408  21189301.13008  21189307.53508
   -274822.82107   -214147.51907  23616845.38007  23616855.49607
  -2540412.74008  -1979536.93208  22747833.92808  22747844.89008
  -7329764.66108  -5711476.54408  22681386.87008  22681399.29308
 -23106358.83609 -18004954.60808  19628266.19009  19628271.13408
 -28571642.04909 -22263624.50208  18981265.56509  18981269.80408
 -13867823.55108 -10806122.68008  20768776.56708  20768783.49808
 -11331208.01608  -8829497.63308  22134857.98108  22134866.06508
 93 04 08 18 56 00.0000000  0  8 27 16 02 11 19 29 18 28
 -16389336.47408 -12770904.07408  21143019.20108  21143025.43408
   -543392.64208   -423422.94608  23565738.56208  23565748.67708
  -2891390.96808  -2253025.91408  22681044.60808  22681055.42108
  -7614127.32008  -5933056.91408  22627273.69608  22627286.01008
 -23157933.94909 -18045143.08408  19618451.76009  19618456.72308
 -13567100.80408 -10571793.96808  20826002.76608  20826009.80708
 -28496523.25909 -22205090.59108  18995560.35409  18995564.58108
 -11231756.62508  -8752003.24108  22153782.96808  22153791.03708
 93 04 08 18 58 00.0000000  0  8 27 16 02 11 19 29 18 28
 -16631795.15808 -12959832.82008  21096880.84508  21096887.10208
   -806120.85608   -628146.45107  23515743.05208  23515753.28507
  -3240295.95008  -2524899.34108  22614649.89508  22614660.45508
  -7894632.19508  -6151631.22808  22573894.75108  22573906.80108
 -23207783.11609 -18083986.66608  19608965.87309  19608970.82508
 -13261603.70108 -10333745.00808  20884137.44808  20884144.69508
 -28414210.81609 -22140951.25208  19011224.06309  19011228.34708
 -11124591.43508  -8668498.09708  22174175.95808  22174184.05308
 93 04 08 19 00 00.0000000  0  8 27 16 02 11 19 18 29 28
 -16872040.28008 -13147036.71508  21051163.59408  21051169.79108
  -1061472.16108   -827121.69207  23467151.44808  23467161.69107
  -3585008.92308  -2793506.30108  22549052.74908  22549063.19008
  -8169671.30808  -6365946.56308  22521555.87208  22521567.72608
 -23254550.34509 -18120428.74608  19600066.38709  19600071.37708
 -28323331.89209 -22070136.73908  19028517.92109  19028522.19808
 -12950130.99208 -10091039.77008  20943409.38308  20943416.77208
 -11008007.54508  -8577653.68408  22196361.32408  22196369.55208
 93 04 08 19 02 00.0000000  0  8 29 16 02 11 19 18 27 28
 -12632139.83508  -9843255.23708  21003921.70008  21003929.19408
  -1309103.17308  -1020081.04808  23420029.11108  23420039.31008
  -3925613.03808  -3058911.56508  22484237.63908  22484247.90908
  -8438784.21608  -6575644.05908  22470344.65508  22470356.38708
 -23297619.90209 -18153989.51808  19591870.58509  19591875.60408
 -28223729.38109 -21992524.61708  19047471.78209  19047476.18208
 -17110141.19508 -13332569.75808  21005854.37308  21005860.58708
 -10881997.76608  -8479464.43108  22220340.38708  22220348.54108
 93 04 08 19 04 00.0000000  0  8 29 16 02 11 19 18 27 28
 -12307917.41508  -9590615.19608  21065619.77308  21065627.45408
  -1549161.35108  -1207139.41808  23374347.50708  23374357.85408
  -4262175.53508  -3321167.53008  22420191.48108  22420201.53908
  -8702032.31508  -6780771.58708  22420249.68408  22420261.01508
 -23337343.85009 -18184943.31608  19584311.45009  19584316.50308
 -28115660.92509 -21908315.64908  19068036.69409  19068041.20608
 -17346210.51008 -13516519.70808  20960931.76008  20960937.90208
 -10747063.66508  -8374321.23308  22246017.76308  22246025.90008
 93 04 08 19 06 00.0000000  0  8 29 16 02 11 19 27 18 28
 -11978322.08208  -9333788.49408  21128340.38308  21128348.25408
  -1781714.54608  -1388349.69808  23330094.09408  23330104.32608
  -4594765.74208  -3580328.18708  22356901.21908  22356911.26108
  -8959527.42708  -6981416.36508  22371249.44008  22371260.49308
 -23374594.62009 -18213969.96208  19577222.93509  19577227.95308
 -17580281.85808 -13698912.81408  20916389.37008  20916395.49408
 -27999298.43009 -21817643.80908  19090179.92909  19090184.48908
 -10603517.04008  -8262467.01008  22273333.81208  22273342.05908
 93 04 08 19 08 00.0000000  0  8 29 16 02 11 19 18 27 28
 -11643616.29408  -9072979.64608  21192033.33008  21192041.44008
  -2007169.75008  -1564029.08708  23287191.32408  23287201.58508
  -4924071.19808  -3836929.24408  22294235.99908  22294245.94908
  -9211294.14108  -7177597.48708  22323339.32708  22323350.27208
 -23409131.71109 -18240882.04808  19570650.77909  19570655.86108
 -27874717.27909 -21720567.81208  19113887.10509  19113891.76208
 -17812874.40808 -13880153.61708  20872128.38008  20872134.42808
 -10451420.05408  -8143950.16908  22302277.18408  22302285.60008
 93 04 08 19 10 00.0000000  0  8 29 16 02 11 19 27 18 28
 -11303614.04308  -8808043.72008  21256734.27908  21256742.61408
  -2225360.94408  -1734048.19508  23245670.89208  23245681.39108
  -5249735.28608  -4090692.84708  22232263.78208  22232273.42608
  -9457179.02508  -7369195.38208  22276548.48008  22276559.24308
 -23441145.45509 -18265827.89708  19564558.85009  19564563.96308
 -18044109.33108 -14060336.56208  20828125.72908  20828131.75808
 -27742372.52409 -21617442.25508  19139071.66109  19139076.32208
 -10291235.96408  -8019131.59608  22332759.36708  22332767.92108
 93 04 08 19 12 00.0000000  0  8 29 16 02 11 19 27 18 28
 -10958798.19708  -8539356.98608  21322351.27908  21322359.82608
  -2436283.09508  -1898403.07408  23205533.72008  23205544.12808
  -5571375.55308  -4341321.02308  22171057.12908  22171066.82708
  -9697108.32508  -7556152.59008  22230890.85708  22230901.51408
 -23470681.56609 -18288843.12408  19558938.38709  19558943.50508
 -18273921.72908 -14239411.07808  20784393.79708  20784399.89208
 -27602209.41609 -21508224.49008  19165744.01209  19165748.72808
 -10122989.57708  -7888030.65608  22364775.70108  22364784.29308
 93 04 08 19 14 00.0000000  0  8 29 16 02 11 27 19 18 28
 -10609186.24708  -8266933.07708  21388880.93208  21388889.86508
  -2639690.80608  -2056902.62608  23166826.58708  23166836.89708
  -5889680.73008  -4589350.45808  22110485.18908  22110494.76008
  -9930999.31308  -7738404.69508  22186382.41908  22186392.92408
 -18502166.68808 -14417264.19008  20740960.15808  20740966.18008
 -23497906.82109 -18310057.66608  19553757.63709  19553762.75708
 -27454186.03709 -21392881.86908  19193912.10209  19193916.91108
  -9946540.36308  -7750537.90908  22398352.92108  22398361.47408
 93 04 08 19 16 00.0000000  0  8 29 16 02 11 27 19 18 28
 -10254695.66308  -7990707.66808  21456339.04608  21456348.23408
  -2835729.64308  -2209660.14808  23129521.75008  23129531.95708
  -6204334.36008  -4834534.56408  22050608.31308  22050617.76408
 -10158565.03708  -7915728.01408  22143077.61808  22143087.91308
 -18729046.59508 -14594053.60608  20697786.29908  20697792.30208
 -23522525.31209 -18329240.94208  19549072.91009  19549078.06208
 -27298437.42109 -21271519.58708  19223550.33109  19223555.20208
  -9762540.37608  -7607161.48608  22433367.24108  22433375.84308
 93 04 08 19 18 00.0000000  0  8 29 16 02 11 27 19 18 28
  -9895941.10408  -7711159.72708  21524608.62408  21524618.00008
  -3024457.77108  -2356721.03408  23093607.89408  23093618.38108
  -6515369.56308  -5076899.14908  21991419.86708  21991429.12008
 -10379638.98708  -8087992.87808  22101008.21208  22101018.50008
 -18954589.19208 -14769800.95008  20654866.83708  20654872.84408
 -23544606.71809 -18346447.26208  19544871.00909  19544876.15108
 -27134908.03209 -21144094.36208  19254669.13709  19254674.05708
  -9570558.90908  -7457565.82008  22469900.35008  22469908.93108
 93 04 08 19 20 00.0000000  0  8 29 16 02 27 11 19 18 28
  -9532438.97008  -7427912.44208  21593781.53008  21593791.27808
  -3205505.54108  -2497797.18308  23059155.69708  23059165.98708
  -6822685.42608  -5316365.58308  21932939.28308  21932948.38408
 -19178790.29108 -14944502.95208  20612202.69908  20612208.68608
 -10593992.53908  -8255021.08708  22060217.76908  22060227.74308
 -23564270.20609 -18361769.49008  19541129.21309  19541134.30108
 -26963612.28309 -21010617.43508  19287265.86709  19287270.82308
  -9370559.30008  -7301722.31708  22507959.27008  22507967.89508
 93 04 08 19 22 00.0000000  0  8 29 16 02 27 11 19 18 28
  -9164674.91208  -7141344.24208  21663765.63708  21663775.68108
  -3379049.90308  -2633026.52708  23026131.22908  23026141.58008
  -7126134.50008  -5552818.97308  21875194.46808  21875203.60808
 -19401391.68308 -15117958.42108  20569842.92808  20569848.88108
 -10801648.26008  -8416830.24508  22020701.81008  22020711.65708
 -23581470.58709 -18375172.39608  19537856.11509  19537861.23808
 -26784909.34609 -20871368.68108  19321272.17909  19321277.21208
  -9163513.13308  -7140388.04508  22547359.05108  22547367.85808
 93 04 08 19 24 00.0000000  0  8 29 16 02 27 11 19 18 28
  -8792950.38408  -6851690.00208  21734503.59008  21734513.72708
  -3545130.11608  -2762439.65508  22994527.33508  22994537.41708
  -7426052.57008  -5786520.92308  21818121.59808  21818130.53708
 -19622443.20408 -15290206.20708  20527778.13308  20527783.98708
 -11002407.32508  -8573265.41408  21982498.22208  21982508.16308
 -23596488.66309 -18386874.82008  19534998.27509  19535003.40208
 -26598771.63209 -20726326.60708  19356693.20409  19356698.30408
  -8948856.34308  -6973123.44208  22588207.15308  22588216.08208
 93 04 08 19 26 00.0000000  0  8 29 16 02 27 11 19 18 28
  -8416945.84508  -6558700.73008  21806055.67008  21806066.25408
  -3703325.81008  -2885708.98008  22964423.56108  22964433.69808
  -7722031.73208  -6017153.55108  21761798.24408  21761807.08508
 -19842188.18708 -15461435.93208  20485961.97408  20485967.74608
 -11195901.56508  -8724039.71708  21945677.14008  21945686.99308
 -23608850.34409 -18396507.32208  19532645.94409  19532651.10808
 -26405147.17409 -20575450.69708  19393538.89609  19393544.05708
  -8726589.31408  -6799928.73808  22630503.56708  22630512.50208
 93 04 08 19 28 00.0000000  0  8 29 16 02 27 11 19 18 28
  -8036988.97808  -6262631.73208  21878360.00508  21878370.95108
  -3853477.99708  -3002710.61808  22935850.54108  22935860.75808
  -8014070.49808  -6244715.72308  21706224.82208  21706233.55508
 -20060568.31208 -15631602.11908  20444405.51708  20444411.24708
 -11381960.74808  -8869020.47108  21910271.02508  21910280.70608
 -23618638.39609 -18404134.41808  19530783.37309  19530788.55308
 -26203642.73609 -20418434.54108  19431884.12409  19431889.40308
  -8496865.92808  -6620923.86108  22674218.79708  22674227.80108
 93 04 08 19 30 00.0000000  0  8 29 16 02 11 27 19 18 28
  -7653096.49108  -5963496.04508  21951413.47608  21951424.57108
  -3995819.45608  -3113625.97108  22908763.72008  22908773.96908
  -8302062.77208  -6469124.84708  21651421.35808  21651429.92808
 -11560617.89408  -9008233.41508  21876273.37808  21876282.92708
 -20277338.88808 -15800514.11608  20403155.30408  20403161.01808
 -23625938.58509 -18409822.91708  19529394.25509  19529399.42408
 -25994947.68209 -20255815.33508  19471597.73809  19471603.08008
  -8260108.90508  -6436438.19608  22719272.19208  22719281.52608
 93 04 08 19 32 00.0000000  0  8 29 16 02 11 27 19 18 28
  -7265277.82308  -5661301.05108  22025213.94908  22025225.30208
  -4130277.96908  -3218398.77908  22883177.10808  22883187.29108
  -8585977.49708  -6690356.69808  21597393.91808  21597402.34308
 -11731515.30508  -9141399.85608  21843752.27308  21843761.86608
 -20492164.92608 -15967910.87308  20362275.14608  20362280.83308
 -23630182.44609 -18413129.87608  19528586.67709  19528591.83708
 -25778880.32709 -20087451.49908  19512714.21209  19512719.67108
  -8016212.35208  -6246389.23608  22765684.44708  22765693.83508
 93 04 08 19 34 00.0000000  0  8 29 16 02 11 27 19 18 28
  -6873777.47908  -5356237.28908  22099714.96808  22099726.76708
  -4256810.19608  -3316995.28208  22859098.82308  22859109.05708
  -8865842.77108  -6908433.17308  21544137.12008  21544145.49008
 -11894513.74408  -9268411.25308  21812734.46608  21812743.95608
 -20705338.13008 -16134019.71308  20321709.56108  20321715.28608
 -23632168.91609 -18414677.85008  19528208.72109  19528213.89208
 -25555435.84809 -19913339.27408  19555234.56009  19555240.08808
  -7765131.41708  -6050742.00208  22813463.81708  22813473.13308
 93 04 08 19 36 00.0000000  0  8 29 16 02 11 27 19 18 28
  -6479225.73908  -5048795.90208  22174796.91908  22174809.04908
  -4375604.07108  -3409561.88808  22836493.00808  22836503.31708
  -9141966.10608  -7123593.83808  21491592.25508  21491600.43908
 -12049933.41508  -9389517.11708  21783158.85708  21783168.16308
 -20917359.33808 -16299230.89008  20281363.18008  20281368.78908
 -23631783.61609 -18414377.70908  19528282.08809  19528287.31408
 -25324870.15309 -19733678.05008  19599110.01309  19599115.62008
  -7507675.45008  -5850127.20408  22862456.40508  22862465.74808
 93 04 08 19 38 00.0000000  0  8 29 16 02 11 27 19 18 28
  -6081497.09908  -4738879.07608  22250483.18208  22250495.85308
  -4486626.61808  -3496072.90708  22815366.07708  22815376.41808
  -9414533.54208  -7335983.66908  21439724.07208  21439732.28408
 -12197492.95808  -9504498.23008  21755078.96608  21755088.16708
 -21127877.62708 -16463270.98908  20241302.75508  20241308.36508
 -23628870.77309 -18412108.05608  19528836.49609  19528841.71308
 -25087395.24409 -19548633.02408  19644300.29809  19644305.98408
  -7243668.07308  -5644407.40008  22912695.45108  22912704.74708
 93 04 08 19 40 00.0000000  0  8 29 16 02 11 28 27 19 18
  -5680492.49608  -4426409.63808  22326793.10308  22326806.19708
  -4589382.00108  -3576141.92908  22795812.32908  22795822.46108
  -9682737.14708  -7544973.10608  21388686.45608  21388694.42208
 -12336709.63108  -9612978.35308  21728586.59708  21728595.75108
  -6973015.28208  -5433509.33308  22964199.22808  22964208.66708
 -21336519.05308 -16625848.62308  20201599.54308  20201605.09108
 -23623171.48309 -18407667.13408  19529921.08209  19529926.33808
 -24842651.10209 -19357923.66208  19690873.80509  19690879.58808
 93 04 08 19 42 00.0000000  0  8 29 16 02 11 28 27 19 18
  -5275848.37008  -4111104.25208  22403795.70208  22403809.18008
  -4683846.06708  -3649750.22508  22777836.39408  22777846.62008
  -9946381.81508  -7750410.13508  21338516.08608  21338524.01608
 -12467245.77108  -9714694.39908  21703746.04908  21703755.05308
  -6695617.68308  -5217355.57208  23016986.42208  23016995.86908
 -21542920.99308 -16786681.20908  20162322.45308  20162328.04908
 -23614560.81809 -18400957.60008  19531559.73709  19531565.01008
 -24590535.49809 -19161470.30808  19738850.08009  19738855.92208
 93 04 08 19 44 00.0000000  0  8 29 16 02 11 28 27 19 18
  -4867776.78008  -3793128.17608  22481450.31408  22481464.36308
  -4770341.24508  -3717149.06008  22761377.00608  22761387.17108
 -10205676.01908  -7952457.18108  21289173.86908  21289181.69608
 -12589025.23208  -9809587.05208  21680571.94708  21680580.82808
  -6411654.45807  -4996085.70708  23071022.64007  23071032.37808
 -21747161.65308 -16945829.67508  20123456.67708  20123462.21608
 -23603044.93009 -18391984.24208  19533751.15009  19533756.46108
 -24331548.34709 -18959662.51208  19788133.98109  19788139.94108
 93 04 08 19 46 00.0000000  0  8 29 16 02 11 28 27 19 18
  -4457009.89108  -3473051.92208  22559618.15608  22559632.56108
  -4848275.30408  -3777876.89208  22746546.45108  22746556.72908
 -10460741.66508  -8151209.22508  21240636.20708  21240643.91508
 -12702259.67408  -9897821.30708  21659023.79908  21659032.61208
  -6121558.37107  -4770036.91508  23126226.18307  23126235.98308
 -21949867.73908 -17103782.36308  20084882.96208  20084888.47708
 -23588791.26509 -18380877.52708  19536463.59709  19536468.86608
 -24065583.87909 -18752417.87308  19838745.66409  19838751.70708
 93 04 08 19 48 00.0000000  0  8 02 29 16 11 28 27 19 18
 -10711672.38408  -8346739.28408  21192885.42308  21192893.01908
  -4043430.27308  -3150783.98208  22638321.28008  22638335.94508
  -4918044.63308  -3832242.57808  22733269.72208  22733280.04308
 -12806655.44808  -9979168.35408  21639157.74008  21639166.48808
  -5825202.12907  -4539110.06808  23182620.95907  23182630.77408
 -22150826.51908 -17260373.51408  20046641.63008  20046647.20708
 -23571561.73009 -18367451.94408  19539742.29709  19539747.60608
 -23792758.66308 -18539827.19608  19890662.90108  19890669.01708
 93 04 08 19 50 00.0000000  0  8 02 29 16 11 28 27 19 18
 -10958558.40808  -8539117.68108  21145904.26008  21145911.84308
  -3627307.78408  -2826534.70308  22717508.36208  22717523.55008
  -4980318.93308  -3880767.98408  22721419.32308  22721429.63608
 -12902276.37708 -10053677.89108  21620961.45808  21620970.19608
  -5522842.03408  -4303504.87708  23240158.38708  23240167.98708
 -22349609.80108 -17415269.44808  20008814.39408  20008819.90508
 -23551646.21409 -18351933.40308  19543532.08209  19543537.39308
 -23513752.31208 -18322420.06908  19943756.33608  19943762.56508
 93 04 08 19 52 00.0000000  0  8 02 29 16 11 28 27 19 18
 -11201362.92508  -8728315.71408  21099699.87708  21099707.34808
  -3208641.22008  -2500303.12708  22797179.48708  22797195.26408
  -5034113.11308  -3922685.60608  22711182.77708  22711193.00108
 -12988921.16108 -10121193.06008  21604473.31208  21604481.98508
  -5214764.27708  -4063444.31308  23298783.67608  23298793.38908
 -22546109.73108 -17568386.13508  19971421.52108  19971426.95908
 -23528645.63309 -18334010.92508  19547909.03109  19547914.35308
 -23227896.10408 -18099675.40308  19998153.24408  19998159.58508
 93 04 08 19 54 00.0000000  0  8 02 29 16 11 28 27 19 18
 -11439623.06708  -8913972.67408  21054360.16708  21054367.71208
  -2787450.73508  -2172104.94008  22877331.05708  22877347.27108
  -5079697.68608  -3958206.20108  22702508.38208  22702518.66508
 -13066329.50308 -10181510.98408  21589742.78908  21589751.34108
  -4901114.18307  -3819041.65708  23358469.27107  23358478.91208
 -22740365.90808 -17719754.44108  19934455.76708  19934461.15408
 -23502603.69209 -18313718.56008  19552864.58309  19552869.93408
 -22935234.18708 -17871627.62108  20053845.36508  20053851.80108
 93 04 08 19 56 00.0000000  0  8 02 29 16 11 28 27 19 18
 -11673638.08508  -9096321.73308  21009828.48708  21009835.78808
  -2364154.69608  -1842266.13108  22957883.31208  22957900.08008
  -5117539.76308  -3987693.69608  22695307.42808  22695317.66708
 -13134706.05708 -10234791.12208  21576730.99208  21576739.45008
  -4581830.36107  -3570249.10508  23419226.90707  23419236.75508
 -22932708.31008 -17869631.49708  19897854.08908  19897859.39408
 -23473597.05109 -18291116.03508  19558384.51209  19558389.82708
 -22636404.95208 -17638774.17008  20110710.97508  20110717.60008
 93 04 08 19 58 00.0000000  0  8 11 29 16 28 02 27 19 18
 -13194013.30008 -10281004.30008  21565444.91608  21565453.32108
  -1939030.13808  -1511002.60108  23038783.48508  23038800.94608
  -5147494.54208  -4011035.26208  22689607.37508  22689617.64308
  -4257354.17007  -3317410.54508  23480972.42007  23480982.30008
 -11903280.42608  -9275263.47208  20966128.66608  20966136.02208
 -23122891.33608 -18017825.91208  19861663.31808  19861668.67208
 -23441594.77909 -18266179.25108  19564474.37009  19564479.70108
 -22331559.07608 -17401232.44208  20168721.61108  20168728.38708
 93 04 08 20 00 00.0000000  0  8 11 29 16 28 02 27 19 18
 -13244388.33008 -10320257.30508  21555858.65108  21555867.10908
  -1512198.09008  -1178408.67008  23120008.94308  23120026.90808
  -5169810.28708  -4028424.30808  22685360.97408  22685371.37408
  -3928166.20408  -3060900.41708  23543615.22008  23543624.75208
 -12129119.67508  -9451241.75508  20923152.60308  20923159.83708
 -23311358.79608 -18164683.52508  19825799.10908  19825804.41508
 -23407033.46609 -18239248.41008  19571051.19609  19571056.54008
 -22020957.61108 -17159205.84008  20227827.47708  20227834.41908
 93 04 08 20 02 00.0000000  0  8 11 29 16 28 02 27 19 18
 -13285340.58608 -10352167.92608  21548065.56008  21548073.87908
  -1083145.40508   -844084.50708  23201656.82608  23201675.52708
  -5184111.29208  -4039568.08908  22682639.69108  22682650.08408
  -3593756.33908  -2800321.12308  23607251.08508  23607260.67108
 -12350613.18808  -9623833.76908  20881003.58108  20881010.75508
 -23496955.61108 -18309304.28008  19790481.05208  19790486.31808
 -23369535.76309 -18210029.47408  19578186.83009  19578192.17708
 -21704459.85908 -16912584.72508  20288055.35108  20288062.36908
 93 04 08 20 04 00.0000000  0  8 11 29 16 28 02 27 19 18
 -13316365.66408 -10376343.12708  21542161.56608  21542169.87308
   -652127.74808   -508229.25908  23283678.87308  23283698.17408
  -5189749.53908  -4043961.63708  22681566.89308  22681577.34508
  -3254051.14808  -2535615.59508  23671894.55108  23671904.29308
 -12567598.97608  -9792913.29708  20839712.29408  20839719.38508
 -23679747.94808 -18451739.74008  19755696.72008  19755701.92508
 -23328182.85209 -18177806.47408  19586056.10309  19586061.48808
 -21381402.40408 -16660852.17908  20349531.60408  20349538.79108
 93 04 08 20 06 00.0000000  0  8 11 29 16 28 02 27 19 18
 -13337427.25508 -10392754.61608  21538153.60008  21538161.73808
   -219100.25608   -170808.00108  23366083.19008  23366103.25008
  -5187020.00508  -4041834.84408  22682086.35108  22682097.03908
  -2909326.77408  -2266998.90108  23737493.25408  23737502.84108
 -12779613.58308  -9958119.20908  20799367.10108  20799374.04908
 -23859859.19808 -18592086.06208  19721422.61608  19721427.80708
 -23283172.39309 -18142733.45008  19594621.28009  19594626.61308
 -21052133.76908 -16404279.77308  20412189.71008  20412197.04908
 93 04 08 20 08 00.0000000  0  8 11 16 29 28 02 27 19 18
 -13348790.85908 -10401609.27308  21535991.02708  21535999.19708
  -5176506.03308  -4033642.33008  22684087.32808  22684097.86408
    215521.77108    167855.67508  23448791.09708  23448812.10208
  -2559753.01407  -1994603.53308  23804014.86707  23804024.21108
 -12987325.20208 -10119972.14508  20759840.59908  20759847.54808
 -24037009.05608 -18730124.79208  19687712.03508  19687717.19808
 -23234736.14509 -18104991.00508  19603838.44009  19603843.85008
 -20716789.76608 -16142973.32908  20476004.01608  20476011.47208
 93 04 08 20 10 00.0000000  0  8 11 16 29 28 02 27 19 18
 -13350747.75108 -10403134.02608  21535618.58008  21535626.79108
  -5158529.55008  -4019634.89308  22687508.10608  22687518.86908
    651431.04707    507522.28808  23531744.10707  23531765.64208
  -2205731.39608  -1718742.28408  23871382.67608  23871392.01008
 -13190851.59108 -10278563.90108  20721110.75508  20721117.63308
 -24211784.83508 -18866313.58508  19654453.21908  19654458.34108
 -23183020.14409 -18064692.92308  19613679.77609  19613685.21708
 -20375990.80808 -15877416.28608  20540856.35308  20540864.00308
 93 04 08 20 12 00.0000000  0  8 11 16 29 28 02 27 19 18
 -13343201.43408 -10397253.65908  21537054.54708  21537062.66408
  -5132814.84408  -3999597.67608  22692401.73908  22692412.35508
   1088395.67107    848011.03507  23614898.19007  23614920.34907
  -1847353.31208  -1439486.28508  23939579.51608  23939588.81308
 -13390457.69108 -10434100.90608  20683126.75608  20683133.60908
 -24384128.52008 -19000607.24608  19621657.22808  19621662.30008
 -23128106.17809 -18021902.91708  19624129.58509  19624135.03808
 -20030228.61308 -15607991.80308  20606653.16808  20606660.92708
 93 04 08 20 14 00.0000000  0  8 11 16 29 28 02 27 19 18
 -13325773.79108 -10383673.54708  21540370.77008  21540378.96208
  -5099419.97608  -3973575.93608  22698756.50208  22698767.43708
   1526315.28907   1189243.80707  23698233.99207  23698256.92607
  -1484867.95608  -1157029.68607  24008557.72408  24008567.04207
 -13585414.68808 -10586015.21008  20646027.49708  20646034.34508
 -24553343.55208 -19132462.99408  19589456.56008  19589461.67108
 -23069691.32109 -17976384.92908  19635245.66609  19635251.09508
 -19679080.55908 -15334370.55308  20673474.87508  20673482.74408
 93 04 08 20 16 00.0000000  0  8 11 16 29 28 02 27 19 18
 -13298484.23408 -10362408.85408  21545563.77408  21545571.87708
  -5058256.53608  -3941500.77208  22706589.86908  22706600.86908
   1965358.99307   1531352.49507  23781783.84707  23781807.55507
  -1118495.73408   -871544.17307  24078275.70508  24078284.79307
 -13775805.89008 -10734371.75408  20609797.12308  20609803.85208
 -24719315.06908 -19261791.29008  19557873.12008  19557878.15708
 -23007551.82009 -17927964.62408  19647070.47809  19647075.93208
 -19322535.20008 -15056543.62808  20741323.66408  20741331.76208
 93 04 08 20 18 00.0000000  0  8 11 16 29 28 02 27 19 18
 -13261572.31308 -10333646.25308  21552587.84108  21552595.94108
  -5009317.54708  -3903366.80108  22715902.96408  22715913.78808
   2405386.10907   1874227.78507  23865520.26407  23865544.80407
   -748008.11207   -582851.81907  24148776.59207  24148785.49907
 -13961931.74608 -10879404.65408  20574378.30408  20574385.02208
 -24882614.32608 -19389037.31308  19526798.20208  19526803.17708
 -22942097.04109 -17876960.98908  19659526.20209  19659531.65308
 -18961025.43108 -14774848.36008  20810117.21908  20810125.37508
 93 04 08 20 20 00.0000000  0  8 11 16 29 28 02 27 19 18
 -13215927.38708 -10298078.70408  21561273.77308  21561281.74708
  -4953892.29608  -3860178.57208  22726450.22608  22726461.07608
   2844985.23007   2216769.73907  23949175.52607  23949200.63307
   -374745.26507   -291996.74807  24219805.47507  24219814.06007
 -14144587.73808 -11021733.73208  20539619.80608  20539626.37908
 -25043559.03408 -19514448.64708  19496171.36908  19496176.31708
 -22874006.59609 -17823903.57708  19672483.42609  19672488.94608
 -18595497.84108 -14490022.32708  20879675.29108  20879683.58208
 93 04 08 20 22 00.0000000  0  6 11 18 16 02 27 19
 -13160170.19508 -10254631.46108  21571883.92608  21571891.92908
 -18224734.50308 -14201116.52408  20950229.76008  20950238.19108
  -4891083.95608  -3811237.34108  22738402.61208  22738413.52808
 -14322968.47408 -11160731.43608  20505674.95908  20505681.46008
 -25200842.43008 -19637007.03708  19466241.27108  19466246.19408
 -22801881.49409 -17767702.28508  19686208.49009  19686214.02408
 93 04 08 20 24 00.0000000  0  6 11 16 18 02 27 19
 -13094450.06208 -10203420.86708  21584389.96808  21584397.96208
  -4820644.89608  -3756350.13608  22751807.00408  22751818.01008
 -17849139.24408 -13908445.61508  21021703.68508  21021712.35008
 -14496977.90508 -11296322.94008  20472561.82008  20472568.28908
 -25354749.07208 -19756934.20508  19436953.77508  19436958.62408
 -22725689.88809 -17708332.30208  19700707.34209  19700712.93108
 93 04 08 20 26 00.0000000  0  6 11 16 18 02 27 19
 -13019013.05508 -10144638.67608  21598745.05008  21598753.06008
  -4743176.24708  -3695985.34008  22766549.12408  22766560.18708
 -17469184.50908 -13612377.72608  21094007.23308  21094016.08808
 -14666551.81108 -11428458.19208  20440292.78808  20440299.11708
 -25505378.50508 -19874307.69708  19408289.83508  19408294.68908
 -22645797.23709 -17646078.39608  19715910.47809  19715916.06908
 93 04 08 20 28 00.0000000  0  6 11 16 18 02 27 19
 -12933695.92208 -10078157.71608  21614980.26208  21614988.26908
  -4658396.05208  -3629923.23408  22782682.45408  22782693.73708
 -17084792.70508 -13312852.39808  21167155.11208  21167164.16508
 -14831505.94708 -11556993.63908  20408902.87808  20408909.19008
 -25652251.45508 -19988754.03508  19380340.70108  19380345.53808
 -22561819.12509 -17580641.01108  19731891.06209  19731896.65308
 93 04 08 20 30 00.0000000  0  6 11 16 18 02 27 19
 -12838639.07608 -10004087.43108  21633069.01108  21633076.99108
  -4566411.98908  -3558247.76808  22800186.94708  22800198.16008
 -16695813.58108 -13009752.57008  21241175.93508  21241185.20908
 -14992255.86008 -11682253.09008  20378313.05308  20378319.30608
 -25795579.67908 -20100438.22008  19353066.19608  19353071.02108
 -22473708.12309 -17511983.17408  19748658.06309  19748663.68908
 93 04 08 20 32 00.0000000  0  7 11 16 18 15 02 27 19
 -12734187.56608  -9922696.64208  21652945.42908  21652953.46508
  -4467948.92908  -3481523.75208  22818924.00708  22818935.42908
 -16302811.90508 -12703518.32708  21315962.33208  21315971.79408
         0.19517         0.13217  24125441.62017  24125459.90217
 -15149085.31208 -11804457.64408  20348469.34208  20348475.47208
 -25935418.99108 -20209403.78608  19326455.58308  19326460.31608
 -22382173.17209 -17440657.30208  19766076.63109  19766082.30208
 93 04 08 20 34 00.0000000  0  7 11 16 18 15 02 27 19
 -12620528.04708  -9834130.76708  21674574.16708  21674582.11808
  -4363175.56508  -3399882.61608  22838862.16308  22838873.68908
 -15906323.11908 -12394566.91708  21391412.26708  21391422.01708
   -263611.23707   -205409.99107  24075276.92007  24075294.94907
 -15302333.07008 -11923871.26308  20319306.98708  20319313.14308
 -26071937.17608 -20315781.51108  19300476.89608  19300481.62808
 -22287104.13809 -17366577.59408  19784167.65509  19784173.37208
 93 04 08 20 36 00.0000000  0  7 11 16 18 15 02 27 19
 -12497145.83408  -9737988.79408  21698053.02608  21698061.08508
  -4251433.11508  -3312811.07408  22860126.54008  22860138.07308
 -15506365.04708 -12082912.23808  21467522.50808  21467532.41008
   -526262.72007   -410071.99407  24025294.92907  24025312.53407
 -15451090.55108 -12039785.98508  20290999.24308  20291005.31008
 -26204476.33908 -20419058.74408  19275255.55708  19275260.29708
 -22187512.81609 -17288974.08508  19803119.40609  19803125.09708
 93 04 08 20 38 00.0000000  0  7 16 11 15 18 02 27 19
  -4133145.52108  -3220639.50708  22882636.32208  22882648.10508
 -12364128.04108  -9634338.61008  21723365.44808  21723373.49608
   -787789.46407   -613857.51207  23975526.90007  23975544.23907
 -15102402.25508 -11768137.04808  21544394.88908  21544404.92608
 -15595339.54708 -12152187.59608  20263549.44608  20263555.41508
 -26332939.78108 -20519160.07508  19250809.79208  19250814.44308
 -22084050.24109 -17208354.03808  19822807.75909  19822813.51308
 93 04 08 20 40 00.0000000  0  7 16 15 11 18 27 02 19
  -4008456.98408  -3123480.19308  22906364.19908  22906375.99308
  -1048065.11007   -816668.09607  23925996.78407  23926013.75407
 -12221608.37108  -9523284.35608  21750486.05108  21750494.14008
 -14694812.09708 -11450535.36908  21621957.44608  21621967.83808
 -26457211.54408 -20615995.11608  19227161.50508  19227166.21608
 -15735702.03208 -12261560.77208  20236839.18208  20236845.14608
 -21976405.85209 -17124475.41708  19843291.84309  19843297.53408
 93 04 08 20 42 00.0000000  0  7 16 15 11 18 02 27 19
  -3877810.39608  -3021678.25208  22931225.80108  22931237.78108
  -1307198.41807  -1018588.58607  23876684.21307  23876700.71107
 -12069962.60608  -9405118.89008  21779343.38908  21779351.46108
 -14283936.36508 -11130373.52908  21700145.35408  21700155.97208
 -15872100.82408 -12367845.36308  20210883.24908  20210889.22808
 -26577619.84608 -20709819.66408  19204248.53508  19204253.19608
 -21864690.19709 -17037424.36608  19864550.76709  19864556.53808
 93 04 08 20 44 00.0000000  0  7 15 16 11 27 02 19 18
  -1565784.39707  -1220082.76807  23827475.99507  23827492.20607
  -3741878.15008  -2915757.64508  22957093.16708  22957105.46008
 -11910058.53608  -9280518.41208  21809772.22908  21809780.27308
 -26694953.27908 -20801248.22608  19181920.62108  19181925.29208
 -16005498.01408 -12471791.07508  20185498.50708  20185504.42708
 -21749689.09609 -16947813.22808  19886434.81909  19886440.65008
 -13870943.72308 -10808562.19108  21778736.00008  21778746.91208
 93 04 08 20 46 00.0000000  0  7 15 16 02 27 11 19 18
  -1822995.54607  -1420505.76507  23778529.39307  23778545.18107
  -3600356.95108  -2805482.09508  22984024.44108  22984036.70508
 -16135282.69008 -12572921.84608  20160801.15808  20160807.03008
 -26808360.01608 -20889617.03808  19160339.98808  19160344.60708
 -11741349.53008  -9149056.94908  21841876.52208  21841884.59308
 -21630908.43309 -16855256.99408  19909038.15109  19909043.94008
 -13455486.88408 -10484830.71708  21857795.70808  21857806.86408
 93 04 08 20 48 00.0000000  0  8 15 16 02 27 11 19 18 26
  -2077143.61707  -1618542.06507  23730165.67807  23730181.27207
  -3452038.49508  -2689909.89708  23012249.01208  23012261.51708
 -16259925.03408 -12670045.61108  20137082.36608  20137088.24208
 -26915935.93008 -20973442.34908  19139868.91908  19139873.55308
 -11562435.96208  -9009643.85708  21875922.65308  21875930.78508
 -21506880.91809 -16758612.32808  19932639.89609  19932645.82608
 -13036028.05308 -10157980.84208  21937616.84908  21937628.34908
        -0.52817        -0.38017  24161182.10117  24161191.70817
 93 04 08 20 50 00.0000000  0  8 15 16 02 27 11 19 18 26
  -2328279.79707  -1814231.56107  23682375.33407  23682390.67607
  -3297177.69908  -2569239.77908  23041718.46908  23041731.23008
 -16379860.20008 -12763501.41308  20114259.35708  20114265.18108
 -27018256.54709 -21053172.61608  19120397.92209  19120402.48308
 -11373661.25308  -8862546.72008  21911845.41108  21911853.49208
 -21377501.30909 -16657797.21008  19957260.13709  19957266.04408
 -12612746.36708  -9828152.16208  22018165.55308  22018177.44808
   -392233.95607   -305637.40407  24086542.98007  24086552.96007
 93 04 08 20 52 00.0000000  0  8 15 16 02 27 11 19 18 26
  -2577585.32707  -2008494.61807  23634933.45907  23634948.30307
  -3137378.45908  -2444721.51908  23072127.63508  23072140.49908
 -16496383.86708 -12854298.85908  20092085.46008  20092091.20808
 -27116351.26409 -21129609.96908  19101731.05309  19101735.61408
 -11176508.43208  -8708921.14308  21949362.17908  21949370.35108
 -21244271.72509 -16553982.08408  19982612.98809  19982618.91908
 -12187487.59208  -9496782.92308  22099090.64708  22099102.74708
   -782645.14307   -609854.38507  24012250.77107  24012260.39807
 93 04 08 20 54 00.0000000  0  8 15 16 02 27 11 19 18 26
  -2824913.71707  -2201216.96907  23587867.36707  23587882.08407
  -2972660.46808  -2316370.42108  23103473.06708  23103485.85908
 -16609630.63908 -12942542.86708  20070535.10008  20070540.83908
 -27210436.96509 -21202923.40108  19083827.04409  19083831.59708
 -10971133.79708  -8548888.99808  21988443.78808  21988451.82608
 -21107050.84209 -16447056.83008  20008725.34509  20008731.38108
 -11760266.80908  -9163884.87208  22180388.90408  22180401.41508
  -1171112.83607   -912556.72307  23938327.73207  23938337.80007
 93 04 08 20 56 00.0000000  0  8 15 16 02 27 11 19 18 26
  -3068863.32307  -2391306.54807  23541444.55607  23541459.08007
  -2802354.00908  -2183664.65907  23135881.67308  23135894.75807
 -16718289.32309 -13027211.77408  20049857.98309  20049863.67708
 -27298983.23609 -21271920.38808  19066977.14609  19066981.69508
 -10756448.50308  -8381601.83808  22029297.08508  22029305.30108
 -20964806.68409 -16336217.34408  20035793.62209  20035799.59808
 -11330465.98708  -8828976.42908  22262178.24208  22262191.04008
  -1556244.72707  -1212659.47207  23865039.52507  23865049.70107
 93 04 08 20 58 00.0000000  0  8 15 16 02 27 11 19 18 26
  -3309471.28107  -2578792.30707  23495657.70207  23495672.01407
  -2626521.91707  -2046653.24307  23169341.85307  23169355.14707
 -16822959.29709 -13108772.63608  20029939.77709  20029945.37908
 -27382282.19709 -21336828.56708  19051125.83409  19051130.29408
 -10532801.74408  -8207331.70608  22071855.75108  22071863.87508
 -20817619.31109 -16221526.03008  20063802.57109  20063808.59708
 -10898118.82808  -8492083.88208  22344452.21908  22344465.18408
  -1938076.57508  -1510190.56107  23792379.48108  23792389.30407
 93 04 08 21 00 00.0000000  0  8 15 16 02 27 11 19 18 26
  -3547318.02807  -2764126.46707  23450396.28307  23450410.31407
  -2445954.23907  -1905951.83008  23203703.24907  23203716.62708
 -16924057.96709 -13187550.67308  20010701.24709  20010706.81308
 -27460806.41909 -21398016.17908  19036183.09209  19036187.56408
 -10301097.05808  -8026782.70308  22115947.75608  22115955.92808
 -20666301.21809 -16103615.99608  20092597.53109  20092603.55108
 -10464226.85408  -8153987.62608  22427020.28508  22427033.41408
  -2317281.40408  -1805674.42407  23720218.74408  23720228.41907
 93 04 08 21 02 00.0000000  0  8 15 16 02 27 11 19 18 26
  -3781763.43607  -2946810.19807  23405782.06407  23405795.83307
  -2260762.56607  -1761647.33207  23238944.45807  23238958.07607
 -17021321.62909 -13263340.36008  19992192.37709  19992197.88708
 -27534117.66409 -21455141.71508  19022232.37409  19022236.82108
 -10061018.69208  -7839708.77208  22161633.21908  22161641.46708
 -20510450.63609 -15982174.16008  20122255.08409  20122261.19108
 -10028101.25708  -7814150.92508  22510013.32608  22510026.83208
  -2693423.71608  -2098771.86607  23648640.98608  23648650.66107
 93 04 08 21 04 00.0000000  0  8 15 16 02 27 11 19 18 26
  -4012992.06007  -3126987.26207  23361779.86207  23361793.34107
  -2071232.33207  -1613962.14107  23275011.34107  23275025.26207
 -17115192.43509 -13336486.22908  19974329.26209  19974334.75008
 -27602753.48209 -21508624.07808  19009171.30609  19009175.75408
  -9813077.54108  -7646507.96508  22208815.01908  22208823.22508
 -20350031.85108 -15857172.68908  20152781.90708  20152788.08608
  -9590875.93008  -7473457.31608  22593215.64808  22593229.57508
  -3066850.22108  -2389753.10408  23577579.85608  23577589.61208
 93 04 08 21 06 00.0000000  0  8 15 16 02 27 11 19 18 26
  -4240702.96508  -3304423.20408  23318447.12408  23318460.30308
  -1877567.95707  -1463055.52507  23311865.06707  23311879.04607
 -17205656.08309 -13406977.17008  19957114.41509  19957119.84308
 -27666446.14709 -21558254.62208  18997050.91809  18997055.32208
  -9557305.09208  -7447204.86808  22257486.95608  22257495.14108
 -20185286.90108 -15728800.14408  20184131.97708  20184138.14708
  -9152393.38608  -7131784.11208  22676657.04908  22676671.52408
  -3436582.72208  -2677855.88908  23507221.56908  23507231.36608
 93 04 08 21 08 00.0000000  0  8 15 16 02 27 11 19 18 26
  -4464661.40707  -3478935.29808  23275828.41207  23275841.42808
  -1680039.98007  -1309138.33007  23349453.79407  23349467.94807
 -17292833.65309 -13474907.55108  19940524.99109  19940530.33208
 -27724586.97209 -21603559.06108  18985987.04709  18985991.39408
  -9293801.92508  -7241877.83908  22307629.94708  22307638.28508
 -20015907.12708 -15596816.03508  20216363.94708  20216370.16008
  -8712861.55008  -6789293.32908  22760298.41108  22760313.27908
  -3802814.23208  -2963230.68508  23437529.71008  23437539.28108
 93 04 08 21 10 00.0000000  0  8 15 16 02 27 11 19 18 26
  -4685179.29608  -3650766.46108  23233864.64408  23233877.33408
  -1479081.97107  -1152548.41207  23387695.40307  23387709.86607
 -17377143.33809 -13540603.23808  19924481.26209  19924486.56708
 -27777873.74209 -21645081.12708  18975846.81309  18975851.15808
  -9023218.35308  -7031033.58508  22359120.28008  22359128.63108
 -19842671.98308 -15461827.75108  20249329.57908  20249335.76708
  -8272526.49508  -6446176.70308  22844092.62408  22844107.80608
  -4166024.95108  -3246251.52808  23368412.58108  23368422.06908
 93 04 08 21 12 00.0000000  0  8 15 16 02 27 11 19 18 26
  -4901744.17808  -3819517.40008  23192652.95508  23192665.56408
  -1274488.62607   -993125.83006  23426629.16107  23426643.22106
 -17458069.39209 -13603662.32808  19909081.37009  19909086.63108
 -27825904.01709 -21682507.24608  18966706.89209  18966711.20508
  -8745382.50808  -6814538.18908  22411990.81708  22411999.19408
 -19665178.42608 -15323521.23408  20283105.54208  20283111.83408
  -7831670.36008  -6102654.06508  22927985.98308  22928001.58008
  -4525739.61908  -3526548.13708  23299961.10708  23299970.18808
 93 04 08 21 14 00.0000000  0  8 15 16 02 27 11 19 18 26
  -5113583.92108  -3984586.43708  23152340.58108  23152352.80608
  -1065908.41407   -830596.60507  23466321.28207  23466335.86007
 -17535133.40709 -13663712.01108  19894416.43209  19894421.66308
 -27867949.17209 -21715269.63308  18958705.93809  18958710.24908
  -8459864.75008  -6592056.92308  22466323.01608  22466331.50908
 -19482589.53208 -15181244.36908  20317851.22908  20317857.53408
  -7390192.75208  -5758647.20008  23011997.57108  23012013.71208
  -4881190.05008  -3803521.96708  23232320.66108  23232329.66908
 93 04 08 21 16 00.0000000  0  8 15 16 02 27 11 19 18 26
  -5320646.34808  -4145932.93808  23112937.16108  23112949.34508
   -853831.36007   -665342.53807  23506678.57907  23506693.50807
 -17608908.20709 -13721198.66008  19880377.37609  19880382.61408
 -27904003.03309 -21743363.46108  18951845.05309  18951849.34708
  -8166957.66208  -6363817.74508  22522061.54008  22522069.92108
 -19295068.82308 -15035124.56908  20353535.39208  20353541.75508
  -6947598.59608  -5413770.32108  23096221.70808  23096238.23408
  -5232054.56808  -4076922.32508  23165552.88408  23165561.83508
 93 04 08 21 18 00.0000000  0  7 15 02 27 11 19 18 26
  -5523034.47108  -4303637.09508  23074423.39908  23074435.18408
 -17679633.37509 -13776308.99308  19866918.67609  19866923.81808
 -27934545.83609 -21767162.95108  18946032.84509  18946037.11408
  -7867110.83708  -6130170.96108  22579120.38808  22579129.00708
 -19102879.29508 -14885366.72208  20390108.07708  20390114.45108
  -6504446.03508  -5068458.38708  23180552.15208  23180568.99908
  -5578538.71508  -4346909.37108  23099618.75008  23099627.42408
 93 04 08 21 20 00.0000000  0  7 15 02 27 11 19 18 26
  -5720828.52308  -4457761.46008  23036783.69708  23036795.35608
 -17747094.56509 -13828875.98308  19854081.15009  19854086.26308
 -27959608.94109 -21786692.56608  18941263.46309  18941267.71208
  -7560750.36708  -5891448.57908  22637419.12808  22637427.44108
 -18906233.38008 -14732136.31808  20427528.67308  20427535.14408
  -6061419.96908  -4723245.05308  23264858.61208  23264875.88508
  -5920948.00908  -4613721.22408  23034460.04908  23034468.60608
 93 04 08 21 22 00.0000000  0  7 15 02 27 11 19 18 26
  -5913798.06708  -4608126.45808  23000062.17708  23000073.65008
 -17811484.74609 -13879049.96408  19841827.96509  19841833.06308
 -27978944.51409 -21801759.18508  18937584.03409  18937588.22508
  -7247993.63508  -5647742.05308  22696934.66708  22696943.29108
 -18705187.64508 -14575477.46308  20465786.53708  20465793.03708
  -5618483.98008  -4378102.02708  23349148.01608  23349165.77008
  -6259093.56608  -4877210.65308  22970112.37808  22970121.08308
 93 04 08 21 24 00.0000000  0  8 15 16 02 27 11 19 18 26
  -6101526.84008  -4754407.75208  22964337.96608  22964349.18308
         0.45917        -0.46017  23673651.57717  23673666.97317
 -17873155.94309 -13927105.23708  19830092.15609  19830097.18408
 -27992195.92809 -21812084.88208  18935062.26609  18935066.47108
  -6928772.90908  -5398998.60308  22757680.40008  22757688.85308
 -18499485.94808 -14415190.60008  20504930.34108  20504936.90608
  -5175807.87208  -4033161.53507  23433388.00708  23433406.19007
  -6592529.71808  -5137030.46808  22906661.32508  22906669.73008
 93 04 08 21 26 00.0000000  0  8 15 16 02 27 11 19 18 26
  -6283853.81808  -4896479.78108  22929641.58108  22929652.62208
    225585.79207    175779.57707  23716579.51407  23716595.46707
 -17931775.00609 -13972782.21908  19818937.13809  19818942.09708
 -27999352.97909 -21817661.70508  18933700.27709  18933704.45808
  -6603273.94208  -5145362.98708  22819620.79308  22819629.26908
 -18288947.74808 -14251135.02508  20544994.50508  20545001.06308
  -4733389.29608  -3688421.74107  23517578.86108  23517597.55307
  -6921180.97808  -5393121.72708  22844120.49908  22844128.79208
 93 04 08 21 28 00.0000000  0  8 15 16 02 27 11 19 18 26
  -6460726.29808  -5034301.54308  22895983.10608  22895993.92408
    453361.98807    353266.75407  23759924.33907  23759940.58607
 -17987137.51609 -14015921.64108  19808401.85209  19808406.76008
 -28000611.64309 -21818642.39108  18933460.69009  18933464.86908
  -6271792.48208  -4887065.69008  22882699.70008  22882707.90008
 -18074042.43608 -14083676.53208  20585889.81708  20585896.38508
  -4291105.40307  -3343786.96707  23601744.19407  23601763.40507
  -7244644.26208  -5645170.38608  22782566.98008  22782575.06208
 93 04 08 21 30 00.0000000  0  8 15 16 02 27 11 19 18 26
  -6632339.80308  -5168025.39008  22863325.49708  22863336.04208
    682976.22807    532186.15207  23803619.22707  23803635.36907
 -18040244.82109 -14057303.77108  19798295.75909  19798300.60008
 -27996039.19209 -21815079.35908  18934330.69209  18934334.83708
  -5934870.39708  -4624528.91008  22946813.55208  22946821.98108
 -17855121.35108 -13913088.86508  20627549.29508  20627555.85808
  -3850003.09707  -3000073.11607  23685684.94707  23685704.63807
  -7563365.57908  -5893523.98008  22721916.05008  22721923.81708
 93 04 08 21 32 00.0000000  0  8 15 16 02 27 11 19 18 26
  -6797372.19808  -5296621.11408  22831920.17508  22831930.39308
    915045.35607    713018.45307  23847781.06207  23847797.47207
 -18089843.16209 -14095951.64208  19788857.42509  19788862.22908
 -27984578.24109 -21806148.67208  18936511.62509  18936515.70508
  -5591531.46108  -4356991.96508  23012148.72608  23012157.05608
 -17630851.75708 -13738333.54908  20670226.51408  20670233.21608
  -3409059.73007  -2656483.16607  23769595.55007  23769615.59507
  -7876253.75508  -6137332.30408  22662374.83108  22662382.39408
 93 04 08 21 34 00.0000000  0  8 15 16 02 27 11 19 18 26
  -6956125.89408  -5420324.45408  22801709.68608  22801719.80408
   1148916.65307    895255.04607  23892285.78607  23892302.40407
 -18135980.24909 -14131902.45008  19780077.62709  19780082.40208
 -27966678.86609 -21792201.02508  18939917.69809  18939921.74208
  -5242420.95108  -4084957.67008  23078582.19008  23078590.57608
 -17401286.94508 -13559452.10808  20713911.35508  20713918.24708
  -2968713.58807  -2313358.67607  23853392.52207  23853413.22907
  -8183454.98508  -6376709.28108  22603915.93508  22603923.37708
 93 04 08 21 36 00.0000000  0  8 15 16 02 27 11 19 18 26
  -7108296.46808  -5538898.05908  22772751.94508  22772761.86408
   1384904.61407   1079140.86807  23937193.51107  23937210.20207
 -18179005.79809 -14165428.66808  19771889.92209  19771894.63208
 -27941759.88609 -21772783.57208  18944659.58509  18944663.63108
  -4887575.87008  -3808454.86708  23146106.78708  23146115.22308
 -17166570.92008 -13376556.72508  20758576.48408  20758583.34708
  -2528717.41007  -1970506.77707  23937122.64607  23937143.99007
  -8484523.88608  -6611307.79908  22546623.90308  22546631.20508
 93 04 08 21 38 00.0000000  0  8 15 16 02 27 11 19 18 26
  -7253928.86508  -5652376.96108  22745038.42308  22745048.03208
   1622253.43307   1264087.18106  23982360.09007  23982376.90906
 -18218966.50609 -14196566.64808  19764285.61009  19764290.24108
 -27910026.46209 -21748056.16208  18950698.17209  18950702.20308
  -4527382.06908  -3527784.22708  23214649.37408  23214657.70708
 -16927154.33908 -13189998.53108  20804136.11708  20804143.05808
  -2090083.01107  -1628715.99407  24020593.68407  24020615.61707
  -8779679.31008  -6841298.45708  22490457.20808  22490464.40808
 93 04 08 21 40 00.0000000  0  8 15 16 02 27 11 19 18 26
  -7393164.76708  -5760871.59308  22718541.90608  22718551.48408
   1860441.04907   1449686.94207  24027686.49407  24027703.68107
 -18256147.52609 -14225538.64808  19757210.08909  19757214.69908
 -27871997.76909 -21718423.35508  18957934.72609  18957938.74908
  -4162318.30408  -3243318.83108  23284118.57908  23284126.75808
 -16683382.31108 -13000046.47408  20850524.50808  20850531.48208
  -1652655.61207  -1287865.74607  24103835.02907  24103857.51207
  -9069194.80408  -7066894.37208  22435363.91308  22435370.95008
 93 04 08 21 42 00.0000000  0  8 15 16 02 27 11 19 18 26
  -7525794.08008  -5864218.29808  22693302.88508  22693312.15208
   2099789.52307   1636191.35507  24073233.65707  24073251.08207
 -18290865.05009 -14252591.05008  19750603.40009  19750607.98808
 -27827686.71809 -21683895.19908  18966366.83509  18966370.84208
  -3792507.97708  -2955154.84408  23354491.02908  23354499.41408
 -16434904.40208 -12806427.46408  20897808.40308  20897815.48508
  -1216570.10807   -948060.94907  24186820.58507  24186843.87807
  -9352596.08508  -7287725.99908  22381433.96408  22381440.87908
 93 04 08 21 44 00.0000000  0  8 15 16 02 27 11 19 18 26
  -7652813.04108  -5963193.33708  22669131.44108  22669140.32908
   2338977.35107   1822570.65607  24118750.07107  24118767.83007
 -18324221.37909 -14278582.80108  19744255.73609  19744260.25908
 -27777659.59409 -21644912.94408  18975886.61209  18975890.59308
  -3419278.68508  -2664326.74108  23425514.01108  23425522.44708
 -16182828.45808 -12610004.82008  20945776.99508  20945784.06708
   -783320.94807   -610466.30807  24269266.75807  24269290.53107
  -9630943.39208  -7504619.47808  22328465.93808  22328472.71808
 93 04 08 21 46 00.0000000  0  7 19 15 16 02 27 11 26
 -15927338.47108 -12410921.89608  20994395.27708  20994402.22508
  -7774068.29408  -6057677.25208  22646056.75908  22646065.52808
   2577420.88207   2008369.99506  24164125.08507  24164142.93706
 -18355721.86309 -14303128.44808  19738261.28209  19738265.77508
 -27721825.21708 -21601405.55208  18986511.43408  18986515.44608
  -3042803.88808  -2370969.61008  23497154.88708  23497162.92308
  -9904280.11808  -7717608.66208  22276451.32308  22276457.90808
 93 04 08 21 48 00.0000000  0  8 19 15 16 02 27 11 13 26
 -15667412.18308 -12208382.14908  21043857.80108  21043864.82308
  -7888123.25908  -6146550.52908  22624352.19408  22624360.92608
   2816229.09106   2194453.44506  24209569.31506  24209587.48406
 -18384708.77009 -14325715.45508  19732745.13009  19732749.52808
 -27659000.17509 -21552450.89208  18998466.62109  18998470.56108
  -2661970.11208  -2074215.79908  23569625.13308  23569632.93108
        -0.40117        -0.15317  22718431.58617  22718447.58217
 -10171069.41008  -7925495.90808  22225682.60408  22225689.08508
 93 04 08 21 50 00.0000000  0  7 19 15 11 02 27 13 26
 -15402053.52708 -12001609.37408  21094354.00208  21094361.09208
  -7994228.70108  -6229229.36008  22604160.52808  22604168.99608
  -2276347.52108  -1773730.35608  23643006.17408  23643014.23708
 -18410473.86109 -14345791.92208  19727841.97309  19727846.37508
 -27588969.83009 -21497881.70208  19011792.89109  19011796.76008
   -476802.90408   -371532.33607  22627697.53608  22627712.95907
 -10430473.55208  -8127628.46808  22176319.18008  22176325.57408
 93 04 08 21 52 00.0000000  0  7 19 15 11 27 02 13 26
 -15130550.53608 -11790048.77308  21146019.46608  21146026.67808
  -8091798.45708  -6305257.01308  22585593.06308  22585601.35608
  -1885662.91908  -1469300.58008  23717350.84708  23717358.80108
 -27510847.92108 -21437007.37508  19026658.90908  19026662.81708
 -18432370.58609 -14362854.06408  19723674.97609  19723679.30008
   -950672.57108   -740779.35807  22537521.62508  22537536.45007
 -10681971.27708  -8323600.10408  22128460.29308  22128466.60508
 93 04 08 21 54 00.0000000  0  7 19 15 11 02 27 13 26
 -14854337.19308 -11574817.78408  21198581.18808  21198588.48908
  -8181597.16608  -6375229.28508  22568504.34508  22568512.44108
  -1490990.73708  -1161763.59508  23792454.39108  23792462.22908
 -18451270.71409 -14377581.19808  19720078.21309  19720082.43908
 -27425318.37808 -21370360.88208  19042934.55108  19042938.44208
  -1422298.07608  -1108277.80607  22447772.78808  22447787.11407
 -10926033.68708  -8513777.98308  22082016.20708  22082022.40108
 93 04 08 21 56 00.0000000  0  7 19 15 11 02 27 13 26
 -14574188.29008 -11356520.13908  21251891.93208  21251899.23208
  -8264166.72108  -6439568.42708  22552791.24808  22552799.14208
  -1093178.44508   -851779.75008  23868155.40608  23868163.13908
 -18468018.94909 -14390631.54808  19716891.03609  19716895.15208
 -27333100.73508 -21298502.91308  19060482.92608  19060486.77808
  -1892139.19008  -1474385.84207  22358363.44608  22358377.31507
 -11163623.06708  -8698912.01608  22036804.16408  22036810.16408
 93 04 08 21 58 00.0000000  0  7 15 11 27 02 19 13 26
  -8339703.98608  -6498427.88708  22538416.42708  22538424.21008
   -692720.45908   -539734.26907  23944359.79808  23944367.55707
 -27234605.35408 -21221753.20408  19079225.94108  19079229.76408
 -18483068.57509 -14402358.33008  19714026.98809  19714031.14508
 -14289923.30508 -11135015.18608  21305985.81108  21305993.24308
  -2360304.61308  -1839188.04107  22269273.06608  22269286.50707
 -11394890.29508  -8879119.73708  21992795.07908  21992800.94408
 93 04 08 22 00 00.0000000  0  7 15 11 19 02 27 13 26
  -8407475.22008  -6551235.99908  22525519.57908  22525527.07108
   -289177.34808   -225284.80408  24021151.22508  24021159.12008
 -14001425.19508 -10910211.71708  21360885.62708  21360892.92408
 -18495616.63309 -14412135.82608  19711639.03009  19711643.14208
 -27128992.81608 -21139457.64408  19099323.28008  19099327.07008
  -2825969.01908  -2202041.40407  22180658.54608  22180671.38607
 -11618992.58908  -9053744.42708  21950149.36108  21950155.23808
 93 04 08 22 02 00.0000000  0  7 15 11 02 27 19 13 26
  -8466997.90108  -6597616.74708  22514192.26508  22514199.81908
    117647.24608     91721.68607  24098567.01708  24098574.82407
 -18505416.49709 -14419771.87508  19709773.98109  19709778.01408
 -27015962.34008 -21051381.86308  19120832.21708  19120835.96708
 -13708192.14908 -10681718.67708  21416686.10508  21416693.49808
  -3288550.58208  -2562492.64608  22092630.72108  22092643.09208
 -11835263.10308  -9222266.46608  21908994.08408  21908999.82508
 93 04 08 22 04 00.0000000  0  7 15 11 02 27 19 13 26
  -8519799.34908  -6638760.19208  22504144.14508  22504151.34308
    525945.68008    409876.52607  24176263.80008  24176271.14207
 -18513898.46409 -14426380.97808  19708159.78409  19708163.74808
 -26897090.99308 -20958754.74708  19143452.55508  19143456.33208
 -13411533.75508 -10450556.55008  21473138.46508  21473146.00508
  -3749470.12808  -2921648.80208  22004919.24208  22004931.22108
 -12045710.71908  -9386251.18008  21868946.91808  21868952.49708
 93 04 08 22 06 00.0000000  0  7 15 11 02 27 19 13 26
  -8565028.07408  -6674002.85508  22495536.94908  22495544.28508
    936295.65908    729629.97208  24254350.65208  24254357.86508
 -18520711.37809 -14431689.52608  19706863.12109  19706867.07408
 -26771397.62008 -20860811.78408  19167371.15808  19167374.90008
 -13111126.96908 -10216473.59108  21530304.13108  21530311.76608
  -4207772.02508  -3278765.23108  21917705.85908  21917717.19208
 -12249002.29008  -9544659.73808  21830261.53008  21830266.94208
 93 04 08 22 08 00.0000000  0  7 15 11 02 27 19 13 26
  -8602950.56108  -6703552.34108  22488320.27908  22488327.31908
   1348162.70308   1050565.43908  24332726.03108  24332733.52008
 -18526184.99409 -14435954.48208  19705821.40309  19705825.24508
 -26639450.00908 -20757995.38208  19192479.88108  19192483.62708
 -12807382.17708  -9979789.60008  21588105.08608  21588112.80308
  -4663607.14208  -3633959.57408  21830961.86208  21830972.80708
 -12445468.57008  -9697749.90108  21792874.82808  21792880.29508
 93 04 08 22 10 00.0000000  0  7 15 11 02 27 19 13 26
  -8632073.72108  -6726245.19308  22482777.93108  22482784.95508
   1762780.09908   1373644.05707  24411624.96908  24411632.35207
 -18528306.30009 -14437607.27808  19705417.61409  19705421.43908
 -26499735.77208 -20649127.07908  19219066.59208  19219070.29408
 -12498558.67808  -9739148.17208  21646872.38008  21646880.13408
  -5115362.60708  -3985975.11208  21744994.34208  21745004.92308
 -12633858.95808  -9844547.17608  21757025.02708  21757030.28408
 93 04 08 22 12 00.0000000  0  7 15 19 02 27 11 13 26
  -8651063.57808  -6741041.89608  22479163.82908  22479170.66108
 -12183603.44608  -9493728.80508  21706806.56308  21706814.50208
 -18526424.70709 -14436140.93108  19705775.51109  19705779.32108
 -26350988.45308 -20533220.01108  19247372.19308  19247375.92708
   2181230.21808   1699709.21107  24491253.22308  24491260.91907
  -5561584.51208  -4333678.91908  21660079.93808  21660090.13908
 -12812499.51308  -9983747.21908  21723030.67308  21723035.80608
 93 04 08 22 14 00.0000000  0  7 15 19 13 02 27 11 26
  -8659964.37208  -6747976.94708  22477469.61808  22477476.31908
 -11862907.15308  -9243835.89408  21767833.26408  21767841.29308
  -6002186.01908  -4677003.31408  21576235.29508  21576245.11108
 -18520655.18509 -14431645.03108  19706873.33409  19706877.05108
 -26193422.61608 -20410441.38308  19277355.92208  19277359.58108
   2603224.68207   2028536.15607  24571556.15307  24571563.66507
 -12981624.86808 -10115532.85008  21690846.92708  21690852.03008
 93 04 08 22 16 00.0000000  0  7 15 19 13 26 02 27 11
  -8659487.29008  -6747604.53408  22477559.89108  22477566.45908
 -11537277.92208  -8990099.09508  21829798.78408  21829806.73008
  -6437746.09508  -5016399.40408  21493349.90408  21493359.42708
 -13142077.08008 -10240560.23908  21660313.56108  21660318.54008
 -18511404.45809 -14424436.50008  19708633.58709  19708637.28508
 -26027513.09708 -20281161.18708  19308927.44608  19308931.11008
   3027816.52007   2359387.08406  24652353.31707  24652360.31306
